W3MSB Weather Reports


time (UTC)temp
C
wind
direction
speed
KPH
gust
KPH
rain 1hr
cm
rain 24hr
cm
rain mn
cm
humidity
%
barometer
mb
20260507060844 11 325 12.9 24.1 0.00 1.30 0.00 83 1010.1
20260507060738 11 327 11.3 24.1 0.00 1.30 0.00 84 1010.0
20260507060638 11 304 11.3 24.1 0.00 1.30 0.00 84 1010.0
20260507060532 11 310 11.3 24.1 0.00 1.30 0.00 83 1010.0
20260507060432 11 321 11.3 24.1 0.00 1.30 0.00 84 1010.0
20260507060328 11 331 9.7 24.1 0.00 1.30 0.00 84 1010.0
20260507060227 11 5 9.7 24.1 0.00 1.30 0.00 84 1010.0
20260507060120 11 5 9.7 24.1 0.00 1.30 0.00 84 1010.0
20260507060020 11 340 9.7 24.1 0.00 1.30 0.00 84 1010.1
20260507055914 11 311 9.7 24.1 0.00 1.30 0.00 84 1010.1
20260507055814 11 316 9.7 24.1 0.00 1.30 0.00 84 1010.1
20260507055707 11 329 11.3 24.1 0.00 1.30 0.00 84 1010.1
20260507055608 11 307 11.3 24.1 0.00 1.30 0.00 84 1010.0
20260507055503 11 300 12.9 24.1 0.00 1.30 0.00 84 1009.9
20260507055402 11 338 12.9 24.1 0.00 1.30 0.00 84 1009.9
20260507055257 11 316 14.5 24.1 0.00 1.30 0.00 84 1009.9
20260507055156 11 329 14.5 24.1 0.00 1.30 0.00 84 1009.9
20260507055051 11 331 14.5 24.1 0.00 1.30 0.00 84 1009.9
20260507054950 11 317 14.5 24.1 0.00 1.30 0.00 84 1009.9
20260507054844 11 311 14.5 24.1 0.00 1.30 0.00 84 1009.8
20260507054744 11 331 14.5 24.1 0.00 1.30 0.00 84 1009.9
20260507054639 11 321 16.1 24.1 0.00 1.30 0.00 84 1009.9
20260507054539 11 319 14.5 24.1 0.00 1.30 0.00 84 1009.9
20260507054457 11 306 14.5 22.5 0.00 1.30 0.00 85 1009.8
20260507054449 11 345 14.5 22.5 0.00 1.30 0.00 85 1009.8
20260507054226 11 315 12.9 22.5 0.00 1.30 0.00 85 1009.7
20260507054126 11 304 12.9 22.5 0.00 1.30 0.00 85 1009.8
20260507054043 11 325 11.3 22.5 0.00 1.30 0.00 85 1009.8
20260507054035 11 319 12.9 22.5 0.00 1.30 0.00 85 1009.8
20260507053814 11 321 11.3 20.9 0.00 1.30 0.00 85 1009.8
20260507053714 11 332 11.3 20.9 0.00 1.30 0.00 85 1009.7
20260507053631 11 309 9.7 20.9 0.00 1.30 0.00 85 1009.8
20260507053623 11 331 9.7 20.9 0.00 1.30 0.00 85 1009.8
20260507053403 11 331 9.7 17.7 0.00 1.30 0.00 85 1009.7
20260507053302 11 336 9.7 17.7 0.00 1.30 0.00 85 1009.8
20260507053158 11 317 9.7 17.7 0.00 1.30 0.00 85 1009.8
20260507053056 11 325 9.7 17.7 0.00 1.30 0.00 85 1009.7
20260507053013 11 333 9.7 17.7 0.00 1.30 0.00 85 1009.8
20260507053005 11 321 9.7 17.7 0.00 1.30 0.00 85 1009.8
20260507052744 11 333 9.7 17.7 0.00 1.30 0.00 85 1009.8
20260507052644 11 342 9.7 17.7 0.00 1.30 0.00 85 1009.8
20260507052538 11 324 8.0 17.7 0.00 1.30 0.00 85 1009.8
20260507052437 11 336 8.0 17.7 0.00 1.30 0.00 86 1009.8
20260507052332 11 327 8.0 17.7 0.00 1.30 0.00 86 1009.8
20260507052232 11 317 8.0 17.7 0.00 1.30 0.00 85 1009.9
20260507052149 11 321 8.0 17.7 0.00 1.30 0.00 86 1009.9
20260507052141 11 328 8.0 17.7 0.00 1.30 0.00 86 1009.8
20260507051922 11 329 8.0 17.7 0.00 1.30 0.00 86 1009.9
20260507051838 11 346 9.7 17.7 0.00 1.30 0.00 86 1010.0
20260507051831 11 331 9.7 17.7 0.00 1.30 0.00 86 1010.0
20260507051631 11 317 9.7 17.7 0.00 1.30 0.00 86 1009.9
20260507051625 11 344 9.7 17.7 0.00 1.30 0.00 86 1010.0
20260507051427 11 332 11.3 17.7 0.00 1.30 0.00 86 1010.0
20260507051419 11 301 11.3 17.7 0.00 1.30 0.00 86 1009.9
20260507051203 11 355 11.3 17.7 0.00 1.30 0.00 86 1010.1
20260507051056 11 355 11.3 17.7 0.00 1.30 0.00 86 1010.1
20260507050956 11 330 11.3 17.7 0.00 1.30 0.00 86 1010.1
20260507050850 11 314 9.7 22.5 0.00 1.30 0.00 86 1010.0
20260507050750 11 325 9.7 22.5 0.00 1.30 0.00 86 1010.0
20260507050645 11 343 9.7 22.5 0.00 1.30 0.00 86 1009.9
20260507050544 11 315 11.3 22.5 0.00 1.30 0.00 86 1009.9
20260507050438 11 327 11.3 22.5 0.00 1.30 0.00 86 1009.8
20260507050338 11 318 11.3 22.5 0.00 1.30 0.00 86 1009.8
20260507050255 11 320 11.3 22.5 0.00 1.30 0.00 86 1009.7
20260507050247 11 321 11.3 22.5 0.00 1.30 0.00 86 1009.8
20260507050026 11 326 12.9 22.5 0.00 1.30 0.00 86 1009.7
20260507045926 11 331 12.9 22.5 0.00 1.30 0.00 86 1009.8
20260507045820 11 335 12.9 22.5 0.00 1.30 0.00 86 1009.8
20260507045720 11 350 11.3 22.5 0.00 1.30 0.00 86 1009.9
20260507045614 11 307 11.3 22.5 0.00 1.30 0.00 86 1009.9
20260507045517 11 334 11.3 22.5 0.00 1.30 0.00 86 1009.9
20260507045510 11 336 9.7 22.5 0.00 1.30 0.00 86 1010.0
20260507045506 12 333 9.7 22.5 0.00 1.30 0.00 86 1009.9
20260507045502 12 338 9.7 22.5 0.00 1.30 0.00 86 1009.9
20260507045449 11 337 11.3 22.5 0.00 1.30 0.00 86 1010.0
20260507044957 12 331 8.0 22.5 0.00 1.30 0.00 86 1010.0
20260507044856 12 334 8.0 16.1 0.00 1.30 0.00 86 1010.0
20260507044750 12 327 8.0 16.1 0.00 1.30 0.00 86 1010.0
20260507044651 12 329 9.7 16.1 0.00 1.30 0.00 86 1010.0
20260507044544 12 343 9.7 20.9 0.00 1.30 0.00 86 1010.1
20260507044444 12 328 9.7 20.9 0.00 1.30 0.00 86 1010.1
20260507044337 12 327 9.7 20.9 0.00 1.30 0.00 86 1010.2
20260507044254 12 319 9.7 20.9 0.00 1.30 0.00 86 1010.2
20260507044248 12 323 9.7 20.9 0.00 1.30 0.00 86 1010.2
20260507044032 12 355 9.7 20.9 0.00 1.30 0.00 86 1010.3
20260507043926 12 322 9.7 20.9 0.00 1.30 0.00 86 1010.4
20260507043826 12 329 8.0 20.9 0.00 1.30 0.00 86 1010.4
20260507043720 12 338 8.0 20.9 0.00 1.30 0.00 86 1010.3
20260507043621 12 317 8.0 20.9 0.00 1.30 0.00 86 1010.4
20260507043514 12 331 8.0 20.9 0.00 1.30 0.00 86 1010.3
20260507043414 12 304 8.0 20.9 0.00 1.30 0.00 86 1010.2
20260507043331 12 342 9.7 20.9 0.00 1.30 0.00 85 1010.0
20260507043323 12 331 9.7 20.9 0.00 1.30 0.00 85 1010.1
20260507043103 12 342 9.7 20.9 0.00 1.30 0.00 85 1010.0
20260507043003 12 316 9.7 20.9 0.00 1.30 0.00 85 1010.0
20260507042857 12 309 9.7 20.9 0.00 1.30 0.00 85 1009.9
20260507042756 12 331 9.7 20.9 0.00 1.30 0.00 85 1009.9
20260507042651 12 355 9.7 20.9 0.00 1.30 0.00 85 1010.0
20260507042550 12 329 9.7 19.3 0.00 1.30 0.00 85 1010.1
20260507042444 12 335 9.7 19.3 0.00 1.30 0.00 85 1010.0
20260507042345 12 317 9.7 19.3 0.00 1.30 0.00 85 1010.0
20260507042239 12 327 9.7 19.3 0.00 1.30 0.00 85 1010.0
20260507042139 12 309 9.7 19.3 0.00 1.30 0.00 85 1010.0
20260507042033 12 351 9.7 19.3 0.00 1.30 0.00 85 1010.0
20260507041932 12 334 9.7 19.3 0.00 1.30 0.00 85 1010.1
20260507041826 12 331 9.7 19.3 0.00 1.30 0.00 85 1010.1
20260507041743 12 5 9.7 19.3 0.00 1.30 0.00 85 1010.0
20260507041736 12 342 9.7 19.3 0.00 1.30 0.00 85 1010.0
20260507041601 12 331 8.0 19.3 0.00 1.30 0.00 85 1009.9
20260507041551 12 327 9.7 19.3 0.00 1.30 0.00 85 1009.9
20260507041430 12 348 9.7 19.3 0.00 1.30 0.00 85 1009.9
20260507041209 12 346 8.0 16.1 0.00 1.30 0.00 85 1009.9
20260507041107 12 346 8.0 16.1 0.00 1.30 0.00 85 1010.0
20260507041000 12 334 8.0 16.1 0.00 1.30 0.00 85 1010.0
20260507040901 12 311 8.0 16.1 0.00 1.30 0.00 85 1010.0
20260507040755 12 340 8.0 16.1 0.00 1.30 0.00 85 1009.9
20260507040716 12 317 6.4 14.5 0.00 1.30 0.00 85 1009.9
20260507040708 12 340 6.4 14.5 0.00 1.30 0.00 85 1009.9
20260507040453 12 323 6.4 14.5 0.00 1.30 0.00 85 1009.9
20260507040352 12 309 6.4 14.5 0.00 1.30 0.00 85 1010.0
20260507040252 12 339 6.4 14.5 0.00 1.30 0.00 85 1010.0
20260507040153 12 326 6.4 14.5 0.00 1.30 0.00 85 1009.9
20260507040116 12 324 6.4 14.5 0.00 1.30 1.30 85 1010.0
20260507040108 12 337 6.4 14.5 0.00 1.30 0.00 85 1010.0
20260507035847 12 328 6.4 14.5 0.00 1.30 1.30 85 1010.0
20260507035747 12 329 6.4 14.5 0.00 1.30 1.30 85 1010.1
20260507035641 12 328 6.4 14.5 0.00 1.30 1.30 85 1010.2
20260507035556 12 331 6.4 14.5 0.00 1.30 1.30 85 1010.0
20260507035549 12 329 6.4 14.5 0.00 1.30 1.30 85 1010.0
20260507035335 12 331 6.4 14.5 0.00 1.30 1.30 85 1010.0
20260507035229 12 332 6.4 14.5 0.00 1.30 1.30 85 1010.0
20260507035129 12 315 6.4 14.5 0.00 1.30 1.30 85 1009.9
20260507035023 12 330 6.4 14.5 0.00 1.30 1.30 85 1009.9
20260507034923 12 329 6.4 14.5 0.00 1.30 1.30 85 1009.9
20260507034821 12 333 6.4 14.5 0.00 1.30 1.30 85 1009.7
20260507034720 12 334 6.4 14.5 0.00 1.30 1.30 85 1009.7
20260507034620 12 339 8.0 14.5 0.00 1.30 1.30 85 1009.7
20260507034540 12 309 8.0 14.5 0.00 1.30 1.30 85 1009.9
20260507034532 12 338 8.0 14.5 0.00 1.30 1.30 85 1009.8
20260507034320 12 302 8.0 14.5 0.00 1.30 1.30 85 1010.1
20260507034219 12 302 8.0 14.5 0.00 1.30 1.30 85 1010.1
20260507034112 12 285 8.0 14.5 0.00 1.30 1.30 85 1010.1
20260507034013 12 285 8.0 14.5 0.00 1.30 1.30 85 1010.0
20260507033907 12 306 8.0 14.5 0.00 1.30 1.30 85 1009.9
20260507033807 12 328 8.0 16.1 0.00 1.30 1.30 85 1009.8
20260507033701 12 333 8.0 16.1 0.00 1.30 1.30 85 1009.7
20260507033601 12 344 8.0 16.1 0.00 1.30 1.30 85 1009.8
20260507033534 12 325 8.0 16.1 0.00 1.30 1.30 85 1009.8
20260507033529 12 332 8.0 16.1 0.00 1.30 1.30 85 1009.8
20260507033521 12 346 8.0 16.1 0.00 1.30 1.30 85 1009.8
20260507033149 12 331 8.0 16.1 0.00 1.30 1.30 85 1009.9
20260507033107 12 325 8.0 16.1 0.00 1.30 1.30 85 1009.9
20260507033059 12 311 8.0 16.1 0.00 1.30 1.30 85 1010.0
20260507032837 12 321 8.0 16.1 0.00 1.30 1.30 85 1009.8
20260507032737 12 300 9.7 16.1 0.00 1.30 1.30 85 1009.6
20260507032630 12 318 9.7 16.1 0.00 1.30 1.30 85 1009.5
20260507032531 12 333 9.7 16.1 0.00 1.30 1.30 85 1009.5
20260507032448 12 315 9.7 16.1 0.00 1.30 1.30 85 1009.4
20260507032439 12 324 9.7 16.1 0.00 1.30 1.30 85 1009.5
20260507032218 12 355 9.7 16.1 0.00 1.30 1.30 84 1009.3
20260507032140 13 338 9.7 16.1 0.00 1.30 1.30 84 1009.1
20260507032133 12 332 9.7 16.1 0.00 1.30 1.30 84 1009.2
20260507031917 13 342 9.7 16.1 0.00 1.30 1.30 84 1009.1
20260507031804 13 0 9.7 24.1 0.00 1.30 1.30 84 1009.1
20260507031703 13 345 8.0 24.1 0.00 1.30 1.30 84 1009.2
20260507031557 13 5 8.0 24.1 0.00 1.30 1.30 84 1009.4
20260507031457 13 18 9.7 24.1 0.00 1.30 1.30 84 1009.4
20260507031351 13 316 9.7 24.1 0.00 1.30 1.30 84 1009.3
20260507031251 13 5 9.7 24.1 0.00 1.30 1.30 84 1009.2
20260507031145 13 13 9.7 24.1 0.00 1.30 1.30 84 1009.2
20260507031046 13 316 9.7 24.1 0.00 1.30 1.30 84 1009.3
20260507031002 13 338 11.3 24.1 0.00 1.30 1.30 84 1009.7
20260507030955 13 342 9.7 24.1 0.00 1.30 1.30 84 1009.6
20260507030734 13 346 11.3 24.1 0.00 1.30 1.30 84 1009.7
20260507030633 13 355 12.9 24.1 0.00 1.30 1.30 84 1009.8
20260507030529 13 348 12.9 24.1 0.00 1.30 1.30 84 1009.7
20260507030428 13 335 12.9 24.1 0.00 1.30 1.30 84 1009.6
20260507030344 13 336 12.9 24.1 0.00 1.30 1.30 84 1009.6
20260507030337 13 355 12.9 24.1 0.00 1.30 1.30 84 1009.6
20260507030114 13 355 12.9 24.1 0.00 1.30 1.30 84 1009.6
20260507030015 13 330 12.9 24.1 0.00 1.30 1.30 84 1009.6
20260507025909 13 342 12.9 24.1 0.00 1.30 1.30 84 1009.7
20260507025830 13 355 11.3 20.9 0.00 1.30 1.30 84 1009.6
20260507025826 13 339 11.3 20.9 0.00 1.30 1.30 84 1009.5
20260507025819 13 350 12.9 24.1 0.00 1.30 1.30 84 1009.7
20260507025803 13 9 12.9 24.1 0.00 1.30 1.30 84 1009.7
20260507025642 13 310 11.3 20.9 0.00 1.30 1.30 84 1009.6
20260507025407 13 9 11.3 20.9 0.00 1.30 1.30 84 1009.5
20260507025151 13 331 11.3 20.9 0.00 1.30 1.30 84 1009.5
20260507025108 13 341 9.7 24.1 0.00 1.30 1.30 84 1009.4
20260507025100 13 341 11.3 24.1 0.00 1.30 1.30 84 1009.5
20260507024839 13 333 9.7 24.1 0.00 1.30 1.30 84 1009.5
20260507024822 13 344 12.9 22.5 0.00 1.30 1.30 84 1009.6
20260507024812 13 355 11.3 24.1 0.00 1.30 1.30 84 1009.5
20260507024651 13 329 11.3 24.1 0.00 1.30 1.30 84 1009.4
20260507024636 13 338 11.3 24.1 0.00 1.30 1.30 84 1009.5
20260507024525 13 0 11.3 24.1 0.00 1.30 1.30 84 1009.6
20260507024511 13 355 11.3 24.1 0.00 1.30 1.30 84 1009.6
20260507024352 13 337 11.3 24.1 0.00 1.30 1.30 84 1009.6
20260507024014 13 11 12.9 24.1 0.00 1.30 1.30 84 1009.6
20260507023956 13 342 11.3 24.1 0.00 1.30 1.30 84 1009.6
20260507023950 13 350 11.3 24.1 0.00 1.30 1.30 84 1009.7
20260507023941 13 328 12.9 24.1 0.00 1.30 1.30 84 1009.6
20260507023604 13 326 11.3 24.1 0.00 1.30 1.30 84 1009.7
20260507023503 13 328 11.3 24.1 0.00 1.30 1.30 84 1009.6
20260507023357 13 346 9.7 24.1 0.00 1.30 1.30 84 1009.6
20260507023314 13 326 9.7 24.1 0.00 1.30 1.30 84 1009.5
20260507023306 13 342 9.7 24.1 0.00 1.30 1.30 84 1009.5
20260507023050 13 347 8.0 19.3 0.00 1.30 1.30 84 1009.4
20260507022945 13 340 8.0 19.3 0.00 1.30 1.30 84 1009.4
20260507022844 13 355 8.0 12.9 0.00 1.30 1.30 84 1009.5
20260507022739 13 335 8.0 12.9 0.00 1.30 1.30 84 1009.4
20260507022639 13 344 6.4 12.9 0.00 1.30 1.30 84 1009.4
20260507022555 13 341 6.4 12.9 0.00 1.30 1.30 84 1009.4
20260507022548 13 344 6.4 12.9 0.00 1.30 1.30 84 1009.4
20260507022327 13 329 6.4 12.9 0.00 1.30 1.30 84 1009.4
20260507022227 13 328 6.4 12.9 0.00 1.30 1.30 83 1009.3
20260507022144 13 332 8.0 12.9 0.00 1.30 1.30 83 1009.2
20260507022135 13 331 6.4 12.9 0.00 1.30 1.30 83 1009.3
20260507021939 13 310 6.4 25.7 0.00 1.30 1.30 83 1009.2
20260507021930 13 337 8.0 12.9 0.00 1.30 1.30 83 1009.2
20260507021709 13 302 6.4 25.7 0.00 1.30 1.30 83 1009.3
20260507021609 14 293 6.4 25.7 0.00 1.30 1.30 83 1009.3
20260507021504 14 292 8.0 25.7 0.00 1.30 1.30 82 1009.3
20260507021404 14 293 9.7 25.7 0.00 1.30 1.30 83 1009.2
20260507021320 14 307 9.7 25.7 0.00 1.30 1.30 82 1009.3
20260507021313 14 314 9.7 25.7 0.00 1.30 1.30 82 1009.2
20260507021115 14 327 11.3 25.7 0.00 1.30 1.30 82 1009.1
20260507021105 14 315 11.3 25.7 0.00 1.30 1.30 82 1009.2
20260507020844 14 283 12.9 25.7 0.00 1.30 1.30 82 1009.1
20260507020745 14 287 12.9 25.7 0.00 1.30 1.30 82 1009.1
20260507020703 14 304 14.5 25.7 0.00 1.30 1.30 82 1009.2
20260507020654 14 276 12.9 25.7 0.00 1.30 1.30 82 1009.2
20260507020456 14 300 12.9 25.7 0.00 1.30 1.30 82 1009.3
20260507020448 14 301 12.9 25.7 0.00 1.30 1.30 82 1009.3
20260507020227 14 308 12.9 25.7 0.00 1.30 1.30 82 1009.2
20260507020145 14 273 12.9 25.7 0.00 1.30 1.30 82 1009.2
20260507020137 14 300 12.9 25.7 0.00 1.30 1.30 82 1009.2
20260507015921 14 289 11.3 25.7 0.00 1.30 1.30 82 1009.2
20260507015816 14 313 12.9 24.1 0.00 1.30 1.30 82 1009.2
20260507015733 14 300 11.3 22.5 0.00 1.30 1.30 82 1009.3
20260507015725 14 304 12.9 24.1 0.00 1.30 1.30 82 1009.3
20260507015509 14 300 11.3 22.5 0.00 1.30 1.30 83 1009.3
20260507015444 14 325 9.7 22.5 0.00 1.30 1.30 83 1009.3
20260507015434 14 288 11.3 22.5 0.00 1.30 1.30 82 1009.3
20260507015313 14 303 9.7 22.5 0.00 1.30 1.30 83 1009.4
20260507015057 14 290 9.7 22.5 0.00 1.30 1.30 83 1009.4
20260507014958 14 279 8.0 16.1 0.00 1.30 1.30 83 1009.4
20260507014952 14 277 8.0 22.5 0.00 1.30 1.30 83 1009.4
20260507014944 14 280 8.0 16.1 0.00 1.30 1.30 83 1009.4
20260507014932 14 355 8.0 22.5 0.00 1.30 1.30 84 1009.4
20260507014812 14 321 8.0 22.5 0.00 1.30 1.30 84 1009.5
20260507014439 14 311 8.0 16.1 0.00 1.30 1.30 83 1009.3
20260507014332 14 310 9.7 17.7 0.00 1.30 1.30 83 1009.2
20260507014233 14 311 9.7 17.7 0.00 1.30 1.30 83 1009.2
20260507014127 14 309 9.7 17.7 0.00 1.30 1.30 83 1009.3
20260507014027 14 317 9.7 17.7 0.00 1.30 1.30 83 1009.4
20260507013922 14 324 9.7 17.7 0.00 1.30 1.30 83 1009.4
20260507013838 14 308 9.7 20.9 0.00 1.30 1.30 83 1009.5
20260507013831 14 338 9.7 20.9 0.00 1.30 1.30 83 1009.5
20260507013614 14 277 9.7 20.9 0.00 1.30 1.30 83 1009.6
20260507013532 14 296 8.0 20.9 0.00 1.30 1.30 84 1009.6
20260507013525 14 323 9.7 20.9 0.00 1.30 1.30 83 1009.6
20260507013304 14 261 8.0 20.9 0.00 1.30 1.30 83 1009.6
20260507013219 14 298 8.0 20.9 0.00 1.30 1.30 84 1009.5
20260507013213 14 307 8.0 20.9 0.00 1.30 1.30 84 1009.5
20260507012957 15 292 8.0 20.9 0.00 1.30 1.30 84 1009.5
20260507012930 14 259 9.7 20.9 0.00 1.30 1.30 84 1009.4
20260507012926 15 255 9.7 20.9 0.00 1.30 1.30 84 1009.4
20260507012916 15 302 9.7 20.9 0.00 1.30 1.30 84 1009.5
20260507012545 15 306 9.7 20.9 0.00 1.30 1.30 84 1009.4
20260507012440 15 280 9.7 20.9 0.00 1.30 1.30 84 1009.4
20260507012340 15 284 9.7 20.9 0.00 1.30 1.30 84 1009.4
20260507012233 14 284 9.7 20.9 0.00 1.30 1.30 84 1009.4
20260507012134 14 0 9.7 20.9 0.00 1.30 1.30 84 1009.5
20260507012028 14 288 8.0 20.9 0.00 1.30 1.30 84 1009.5
20260507011927 14 279 8.0 20.9 0.00 1.30 1.30 84 1009.4
20260507011822 14 278 8.0 20.9 0.00 1.30 1.30 85 1009.4
20260507011721 14 298 8.0 17.7 0.00 1.30 1.30 85 1009.4
20260507011615 14 251 8.0 17.7 0.00 1.30 1.30 84 1009.3
20260507011516 14 300 8.0 17.7 0.00 1.30 1.30 85 1009.3
20260507011432 15 279 8.0 17.7 0.00 1.30 1.30 85 1009.3
20260507011424 15 274 8.0 17.7 0.00 1.30 1.30 85 1009.3
20260507011234 15 268 8.0 17.7 0.00 1.30 1.30 85 1009.3
20260507011103 15 260 8.0 17.7 0.00 1.30 1.30 85 1009.3
20260507011026 15 261 8.0 25.7 0.00 1.30 1.30 85 1009.1
20260507011000 14 280 8.0 25.7 0.00 1.30 1.30 85 1009.3
20260507010948 15 273 8.0 25.7 0.00 1.30 1.30 85 1009.3
20260507010936 15 287 8.0 25.7 0.00 1.30 1.30 85 1009.3
20260507010701 15 269 8.0 25.7 0.00 1.30 1.30 85 1009.2
20260507010502 15 296 9.7 25.7 0.00 1.30 1.30 85 1008.9
20260507010454 15 293 9.7 25.7 0.00 1.30 1.30 85 1009.0
20260507010240 15 308 9.7 25.7 0.00 1.30 1.30 85 1008.9
20260507010133 15 312 11.3 25.7 0.00 1.30 1.30 85 1008.9
20260507010033 15 282 11.3 20.9 0.00 1.30 1.30 85 1009.0
20260507005929 15 284 11.3 25.7 0.00 1.30 1.30 85 1009.2
20260507005827 15 318 11.3 25.7 0.00 1.30 1.30 85 1009.2
20260507005722 15 277 11.3 25.7 0.00 1.30 1.30 85 1009.1
20260507005621 15 287 11.3 25.7 0.00 1.30 1.30 85 1009.1
20260507005515 15 259 11.3 25.7 0.00 1.30 1.30 85 1009.2
20260507005415 15 265 11.3 25.7 0.00 1.30 1.30 85 1009.2
20260507005310 15 256 11.3 25.7 0.00 1.30 1.30 85 1009.1
20260507005208 15 278 11.3 25.7 0.00 1.30 1.30 86 1009.0
20260507005103 15 277 9.7 25.7 0.00 1.30 1.30 86 1009.0
20260507005003 15 238 9.7 17.7 0.00 1.30 1.30 86 1008.9
20260507004857 15 308 9.7 16.1 0.00 1.30 1.30 86 1008.9
20260507004757 15 269 9.7 16.1 0.00 1.30 1.30 86 1008.8
20260507004714 15 277 9.7 16.1 0.00 1.30 1.30 86 1008.8
20260507004706 15 252 9.7 16.1 0.00 1.30 1.30 86 1008.8
20260507004446 15 274 9.7 16.1 0.00 1.30 1.30 86 1008.9
20260507004345 15 261 9.7 16.1 0.00 1.30 1.30 86 1008.9
20260507004322 15 264 8.0 16.1 0.00 1.30 1.30 86 1008.8
20260507004317 15 296 8.0 14.5 0.00 1.30 1.30 86 1008.9
20260507004312 15 296 8.0 16.1 0.00 1.30 1.30 86 1008.9
20260507004303 15 274 9.7 16.1 0.00 1.30 1.30 86 1008.9
20260507004144 15 273 9.7 16.1 0.00 1.30 1.30 86 1008.8
20260507004128 15 254 8.0 16.1 0.00 1.30 1.30 86 1008.8
20260507003737 15 253 8.0 14.5 0.00 1.30 1.30 86 1008.9
20260507003521 15 256 8.0 14.5 0.00 1.30 1.30 86 1008.9
20260507003438 15 254 8.0 12.9 0.00 1.30 1.30 86 1008.8
20260507003430 15 264 8.0 12.9 0.00 1.30 1.30 86 1008.8
20260507003208 15 271 8.0 12.9 0.00 1.30 1.30 87 1008.7
20260507003110 15 263 8.0 12.9 0.00 1.30 1.30 87 1008.8
20260507003003 15 261 9.7 17.7 0.00 1.30 1.30 87 1008.7
20260507002903 15 265 9.7 17.7 0.00 1.30 1.30 87 1008.6
20260507002757 15 304 9.7 17.7 0.00 1.30 1.30 87 1008.6
20260507002657 15 290 8.0 17.7 0.00 1.30 1.30 87 1008.5
20260507002551 15 261 8.0 17.7 0.00 1.30 1.30 87 1008.5
20260507002450 15 276 8.0 17.7 0.00 1.30 1.30 87 1008.5
20260507002347 15 281 8.0 17.7 0.00 1.30 1.30 87 1008.4
20260507002245 15 273 8.0 17.7 0.00 1.30 1.30 87 1008.4
20260507002201 15 308 8.0 22.5 0.00 1.30 1.30 86 1008.3
20260507002154 15 329 8.0 17.7 0.00 1.30 1.30 86 1008.4
20260507001932 15 287 9.7 22.5 0.00 1.30 1.30 86 1008.3
20260507001832 15 301 9.7 22.5 0.00 1.30 1.30 86 1008.3
20260507001727 15 319 9.7 22.5 0.00 1.30 1.30 86 1008.3
20260507001644 15 302 9.7 22.5 0.00 1.30 1.30 86 1008.3
20260507001636 15 321 11.3 22.5 0.00 1.30 1.30 86 1008.3
20260507001422 15 298 9.7 22.5 0.00 1.30 1.30 86 1008.3
20260507001315 15 298 11.3 22.5 0.00 1.30 1.30 86 1008.3
20260507001234 15 286 12.9 22.5 0.00 1.30 1.30 86 1008.3
20260507001225 15 317 11.3 22.5 0.00 1.30 1.30 86 1008.3
20260507001027 15 279 11.3 22.5 0.00 1.30 1.30 86 1008.1
20260507001019 15 290 12.9 22.5 0.00 1.30 1.30 86 1008.2
20260507000803 15 284 11.3 22.5 0.00 1.30 1.30 86 1008.1
20260507000658 15 277 11.3 22.5 0.00 1.30 1.30 86 1008.1
20260507000636 15 321 11.3 22.5 0.00 1.30 1.30 86 1007.9
20260507000626 15 311 11.3 22.5 0.00 1.30 1.30 86 1008.0
20260507000506 15 313 11.3 22.5 0.00 1.30 1.30 86 1008.0
20260507000246 15 307 11.3 22.5 0.00 1.30 1.30 86 1007.8
20260507000145 15 291 11.3 22.5 0.00 1.30 1.30 87 1007.8
20260507000040 15 329 11.3 20.9 0.00 1.30 1.30 87 1007.9
20260506235939 15 275 11.3 20.9 0.00 1.30 1.30 87 1007.9
20260506235834 15 269 11.3 20.9 0.00 1.30 1.30 87 1007.8
20260506235733 15 304 11.3 20.9 0.00 1.30 1.30 87 1007.8
20260506235627 15 303 11.3 20.9 0.00 1.30 1.30 87 1007.8
20260506235527 15 303 11.3 20.9 0.00 1.30 1.30 87 1007.8
20260506235421 15 275 11.3 20.9 0.00 1.30 1.30 87 1007.8
20260506235320 15 284 11.3 20.9 0.00 1.30 1.30 87 1007.7
20260506235215 15 298 11.3 20.9 0.00 1.30 1.30 87 1007.8
20260506235114 15 271 11.3 19.3 0.00 1.30 1.30 87 1007.7
20260506235009 15 301 11.3 19.3 0.00 1.30 1.30 87 1007.7
20260506234909 15 286 11.3 19.3 0.00 1.30 1.30 87 1007.7
20260506234803 15 294 11.3 19.3 0.00 1.30 1.30 87 1007.6
20260506234720 15 280 11.3 19.3 0.00 1.30 1.30 87 1007.5
20260506234713 15 304 11.3 19.3 0.00 1.30 1.30 87 1007.5
20260506234457 15 280 9.7 19.3 0.00 1.30 1.30 87 1007.4
20260506234351 15 332 9.7 19.3 0.00 1.30 1.30 87 1007.4
20260506234307 15 312 11.3 19.3 0.00 1.30 1.30 87 1007.4
20260506234301 15 309 11.3 19.3 0.00 1.30 1.30 87 1007.4
20260506234045 15 278 11.3 19.3 0.00 1.30 1.30 87 1007.4
20260506233939 15 308 9.7 17.7 0.00 1.30 1.30 87 1007.3
20260506233839 15 318 9.7 17.7 0.00 1.30 1.30 87 1007.3
20260506233733 15 301 9.7 17.7 0.00 1.30 1.30 87 1007.3
20260506233633 15 275 9.7 17.7 0.00 1.30 1.30 87 1007.3
20260506233528 15 290 9.7 17.7 0.00 1.30 1.30 87 1007.3
20260506233427 15 300 8.0 17.7 0.00 1.30 1.30 87 1007.2
20260506233404 16 294 8.0 17.7 0.00 1.30 1.30 87 1007.1
20260506233354 16 299 8.0 17.7 0.00 1.30 1.30 87 1007.2
20260506233236 16 262 8.0 14.5 0.00 1.30 1.30 87 1007.1
20260506233230 16 275 8.0 17.7 0.00 1.30 1.30 87 1007.1
20260506233214 16 312 8.0 17.7 0.00 1.30 1.30 87 1007.1
20260506232939 16 301 8.0 14.5 0.00 1.30 1.30 87 1007.1
20260506232819 16 304 8.0 17.7 0.00 1.30 1.30 87 1007.1
20260506232604 16 284 8.0 17.7 0.00 1.30 1.30 87 1007.1
20260506232456 16 317 8.0 17.7 0.00 1.30 1.30 87 1007.2
20260506232357 16 294 8.0 17.7 0.00 1.30 1.30 87 1007.2
20260506232251 16 295 9.7 17.7 0.00 1.30 1.30 87 1007.2
20260506232151 16 313 9.7 17.7 0.03 1.30 1.30 87 1007.2
20260506232045 16 307 9.7 17.7 0.03 1.30 1.30 87 1007.1
20260506231945 16 285 9.7 17.7 0.03 1.30 1.30 87 1007.1
20260506231839 16 298 8.0 17.7 0.13 1.30 1.30 87 1007.2
20260506231739 16 304 9.7 17.7 0.15 1.30 1.30 87 1007.2
20260506231634 16 300 9.7 19.3 0.15 1.30 1.30 87 1007.2
20260506231554 16 302 9.7 19.3 0.28 1.30 1.30 87 1007.1
20260506231548 16 302 9.7 19.3 0.23 1.30 1.30 87 1007.1
20260506231541 16 344 9.7 19.3 0.18 1.30 1.30 87 1007.2
20260506231525 16 299 9.7 19.3 0.23 1.30 1.30 87 1007.2
20260506231250 16 320 9.7 19.3 0.28 1.30 1.30 87 1007.1
20260506231130 16 298 9.7 19.3 0.28 1.30 1.30 87 1007.1
20260506230932 16 296 11.3 19.3 0.28 1.30 1.30 86 1007.0
20260506230924 16 306 11.3 19.3 0.28 1.30 1.30 87 1007.1
20260506230708 16 302 11.3 19.3 0.28 1.30 1.30 86 1007.0
20260506230603 16 315 11.3 20.9 0.28 1.30 1.30 86 1007.0
20260506230521 16 318 11.3 20.9 0.28 1.30 1.30 86 1007.0
20260506230513 16 329 11.3 20.9 0.28 1.30 1.30 86 1007.0
20260506230257 16 330 11.3 20.9 0.28 1.30 1.30 86 1007.0
20260506230214 17 296 11.3 20.9 0.28 1.30 1.30 86 1007.1
20260506230206 16 314 11.3 20.9 0.28 1.30 1.30 86 1007.1
20260506230008 17 300 9.7 20.9 0.28 1.30 1.30 85 1007.1
20260506230000 17 297 11.3 20.9 0.28 1.30 1.30 86 1007.1
20260506225801 17 276 9.7 17.7 0.28 1.30 1.30 84 1007.1
20260506225754 17 299 9.7 20.9 0.28 1.30 1.30 84 1007.1
20260506225533 17 288 9.7 17.7 0.28 1.30 1.30 84 1007.0
20260506225433 17 323 9.7 17.7 0.28 1.30 1.30 84 1007.0
20260506225328 17 317 9.7 17.7 0.28 1.30 1.30 84 1007.0
20260506225227 17 300 9.7 17.7 0.28 1.30 1.30 84 1006.9
20260506225121 17 309 9.7 17.7 0.28 1.30 1.30 84 1006.9
20260506225021 17 339 9.7 17.7 0.28 1.30 1.30 84 1006.8
20260506224915 17 324 8.0 17.7 0.28 1.30 1.30 84 1006.9
20260506224815 17 297 8.0 17.7 0.28 1.30 1.30 84 1006.9
20260506224709 17 297 8.0 17.7 0.28 1.30 1.30 84 1007.0
20260506224608 17 323 6.4 17.7 0.28 1.30 1.30 84 1007.0
20260506224503 17 0 4.8 14.5 0.28 1.30 1.30 84 1006.9
20260506224403 17 323 4.8 14.5 0.28 1.30 1.30 84 1007.0
20260506224257 17 283 4.8 14.5 0.28 1.30 1.30 84 1006.9
20260506224157 17 266 3.2 6.4 0.28 1.30 1.30 84 1006.9
20260506224052 17 266 3.2 6.4 0.28 1.30 1.30 85 1006.9
20260506223951 17 266 3.2 6.4 0.28 1.30 1.30 85 1006.8
20260506223845 17 266 3.2 6.4 0.28 1.30 1.30 85 1006.8
20260506223803 17 266 3.2 16.1 0.28 1.30 1.30 85 1006.8
20260506223755 17 266 3.2 16.1 0.28 1.30 1.30 85 1006.7
20260506223540 17 266 4.8 16.1 0.28 1.30 1.30 85 1006.8
20260506223434 17 266 4.8 16.1 0.28 1.30 1.30 86 1006.8
20260506223333 17 266 4.8 16.1 0.28 1.30 1.30 86 1006.8
20260506223226 17 266 4.8 16.1 0.28 1.30 1.30 86 1006.8
20260506223127 17 266 6.4 16.1 0.28 1.30 1.30 86 1006.7
20260506223021 17 266 6.4 16.1 0.28 1.30 1.30 86 1006.7
20260506222921 17 265 6.4 16.1 0.28 1.30 1.30 86 1006.7
20260506222814 17 265 8.0 16.1 0.28 1.30 1.30 86 1006.7
20260506222715 17 265 8.0 16.1 0.28 1.30 1.30 86 1006.7
20260506222610 17 265 8.0 16.1 0.28 1.30 1.30 86 1006.7
20260506222552 18 284 9.7 16.1 0.28 1.30 1.30 86 1006.4
20260506222546 18 292 8.0 16.1 0.15 1.17 1.24 86 1006.6
20260506222537 17 266 8.0 16.1 0.28 1.30 1.30 86 1006.6
20260506222419 18 259 9.7 16.1 0.25 1.27 1.27 87 1006.6
20260506222412 17 270 9.7 16.1 0.28 1.30 1.30 86 1006.6
20260506222357 17 278 9.7 16.1 0.28 1.30 1.30 86 1006.4
20260506222007 18 284 9.7 16.1 0.25 1.27 1.27 87 1006.6
20260506221826 18 321 8.0 14.5 0.10 1.12 1.12 86 1006.8
20260506221815 18 275 8.0 14.5 0.13 1.14 1.17 86 1006.6
20260506221655 18 0 8.0 14.5 0.13 1.14 1.14 86 1006.6
20260506221440 18 323 6.4 14.5 0.05 1.07 1.09 86 1006.7
20260506221333 18 303 6.4 14.5 0.05 1.07 1.07 86 1006.7
20260506221233 18 282 6.4 14.5 0.00 1.02 1.02 86 1006.6
20260506221127 18 264 4.8 14.5 0.00 1.02 1.02 86 1006.6
20260506221027 18 213 4.8 14.5 0.00 1.02 1.02 86 1006.4
20260506220921 18 190 4.8 14.5 0.00 1.02 1.02 86 1006.3
20260506220858 18 173 6.4 19.3 0.00 1.02 1.02 86 1006.2
20260506220854 18 167 6.4 19.3 0.00 1.02 1.02 86 1006.2
20260506220845 18 203 6.4 19.3 0.00 1.02 1.02 86 1006.2
20260506220532 18 199 6.4 19.3 0.00 1.02 1.02 86 1006.2
20260506220523 18 199 6.4 19.3 0.00 1.02 1.02 86 1006.2
20260506220302 18 196 6.4 19.3 0.00 1.02 1.02 86 1006.2
20260506220203 18 170 6.4 19.3 0.00 1.02 1.02 85 1006.1
20260506220057 18 175 6.4 19.3 0.00 1.02 1.02 85 1006.1
20260506215958 18 169 6.4 19.3 0.00 1.02 1.02 85 1006.1
20260506215913 18 177 6.4 19.3 0.00 1.02 1.02 85 1006.2
20260506215906 18 198 6.4 19.3 0.00 1.02 1.02 85 1006.2
20260506215645 18 203 6.4 19.3 0.00 1.02 1.02 85 1006.1
20260506215545 18 204 6.4 19.3 0.00 1.02 1.02 85 1006.1
20260506215439 18 204 8.0 19.3 0.00 1.02 1.02 85 1006.1
20260506215339 19 204 8.0 19.3 0.00 1.02 1.02 85 1006.1
20260506215233 19 217 8.0 19.3 0.00 1.02 1.02 85 1006.1
20260506215134 19 190 8.0 19.3 0.00 1.02 1.02 85 1006.0
20260506215027 19 189 8.0 19.3 0.00 1.02 1.02 84 1006.1
20260506214927 19 220 8.0 19.3 0.00 1.02 1.02 84 1006.0
20260506214821 19 160 8.0 19.3 0.00 1.02 1.02 84 1006.0
20260506214721 19 200 8.0 19.3 0.00 1.02 1.02 84 1006.1
20260506214616 19 198 8.0 19.3 0.00 1.02 1.02 84 1006.1
20260506214515 19 234 8.0 19.3 0.00 1.02 1.02 84 1006.0
20260506214409 19 184 8.0 19.3 0.00 1.02 1.02 84 1006.0
20260506214309 19 204 8.0 19.3 0.00 1.02 1.02 84 1005.9
20260506214203 19 215 8.0 19.3 0.00 1.02 1.02 84 1005.9
20260506214103 19 154 8.0 19.3 0.00 1.02 1.02 84 1006.0
20260506213957 19 167 6.4 19.3 0.00 1.02 1.02 84 1005.9
20260506213857 19 161 6.4 16.1 0.00 1.02 1.02 84 1005.9
20260506213751 20 181 6.4 16.1 0.00 1.02 1.02 84 1005.9
20260506213651 20 184 6.4 16.1 0.00 1.02 1.02 84 1005.9
20260506213546 20 210 6.4 16.1 0.00 1.02 1.02 84 1005.8
20260506213445 20 162 6.4 12.9 0.00 1.02 1.02 84 1005.8
20260506213422 20 203 6.4 16.1 0.00 1.02 1.02 84 1005.8
20260506213412 20 198 6.4 16.1 0.00 1.02 1.02 84 1005.8
20260506213252 20 191 6.4 16.1 0.00 1.02 1.02 84 1005.8
20260506213033 20 205 6.4 16.1 0.00 1.02 1.02 84 1005.8
20260506213007 20 195 6.4 16.1 0.00 1.02 1.02 84 1005.8
20260506213002 20 220 4.8 16.1 0.00 1.02 1.02 84 1005.8
20260506212952 20 206 6.4 16.1 0.00 1.02 1.02 83 1005.7
20260506212621 20 210 4.8 16.1 0.00 1.02 1.02 84 1005.7
20260506212514 20 215 4.8 16.1 0.00 1.02 1.02 84 1005.6
20260506212415 20 190 4.8 11.3 0.00 1.02 1.02 84 1005.7
20260506212309 20 189 4.8 11.3 0.00 1.02 1.02 84 1005.7
20260506212209 20 190 4.8 11.3 0.00 1.02 1.02 84 1005.7
20260506212101 20 190 6.4 11.3 0.00 1.02 1.02 84 1005.7
20260506212039 20 232 4.8 11.3 0.00 1.02 1.02 84 1005.7
20260506212035 20 232 4.8 16.1 0.00 1.02 1.02 84 1005.7
20260506212026 20 196 4.8 11.3 0.00 1.02 1.02 84 1005.7
20260506211714 20 233 4.8 16.1 0.00 1.02 1.02 83 1005.7
20260506211707 20 233 4.8 16.1 0.00 1.02 1.02 83 1005.7
20260506211444 20 223 4.8 16.1 0.00 1.02 1.02 83 1005.7
20260506211345 20 233 4.8 16.1 0.00 1.02 1.02 83 1005.7
20260506211239 20 212 4.8 16.1 0.00 1.02 1.02 83 1005.6
20260506211139 20 225 6.4 16.1 0.00 1.02 1.02 84 1005.6
20260506211032 20 184 6.4 16.1 0.00 1.02 1.02 84 1005.6
20260506210933 20 184 8.0 16.1 0.00 1.02 1.02 84 1005.6
20260506210850 20 171 8.0 16.1 0.00 1.02 1.02 84 1005.7
20260506210842 20 184 8.0 16.1 0.00 1.02 1.02 84 1005.7
20260506210621 20 184 8.0 16.1 0.00 1.02 1.02 83 1005.7
20260506210521 20 232 8.0 16.1 0.00 1.02 1.02 83 1005.7
20260506210414 20 236 8.0 16.1 0.00 1.02 1.02 83 1005.7
20260506210315 20 215 8.0 16.1 0.00 1.02 1.02 83 1005.7
20260506210232 20 213 8.0 24.1 0.00 1.02 1.02 83 1005.7
20260506210224 20 225 8.0 24.1 0.00 1.02 1.02 83 1005.7
20260506210003 20 192 8.0 24.1 0.00 1.02 1.02 83 1005.7
20260506205904 20 180 8.0 24.1 0.00 1.02 1.02 83 1005.7
20260506205820 20 243 8.0 24.1 0.00 1.02 1.02 83 1005.6
20260506205813 20 207 8.0 24.1 0.00 1.02 1.02 84 1005.7
20260506205550 20 208 8.0 24.1 0.00 1.02 1.02 83 1005.6
20260506205451 20 186 8.0 24.1 0.00 1.02 1.02 83 1005.6
20260506205406 20 205 9.7 24.1 0.00 1.02 1.02 83 1005.6
20260506205359 20 194 9.7 24.1 0.00 1.02 1.02 83 1005.6
20260506205139 20 217 11.3 24.1 0.00 1.02 1.02 83 1005.6
20260506205039 20 190 11.3 24.1 0.00 1.02 1.02 82 1005.7
20260506204959 20 198 9.7 24.1 0.00 1.02 1.02 82 1005.7
20260506204951 20 222 9.7 24.1 0.00 1.02 1.02 82 1005.6
20260506204829 20 194 9.7 24.1 0.00 1.02 1.02 82 1005.7
20260506204815 20 207 11.3 24.1 0.00 1.02 1.02 82 1005.7
20260506204657 20 192 9.7 24.1 0.00 1.02 1.02 82 1005.7
20260506204536 20 213 9.7 24.1 0.00 1.02 1.02 82 1005.6
20260506204338 20 213 9.7 17.7 0.00 1.02 1.02 83 1005.7
20260506204330 20 225 9.7 24.1 0.00 1.02 1.02 82 1005.7
20260506204109 20 221 9.7 17.7 0.00 1.02 1.02 83 1005.6
20260506204009 20 179 9.7 17.7 0.00 1.02 1.02 83 1005.6
20260506203902 20 238 9.7 19.3 0.00 1.02 1.02 83 1005.6
20260506203803 20 239 9.7 19.3 0.00 1.02 1.02 83 1005.6
20260506203658 20 257 9.7 19.3 0.00 1.02 1.02 82 1005.6
20260506203557 20 218 9.7 19.3 0.00 1.02 1.02 82 1005.6
20260506203452 20 202 11.3 19.3 0.00 1.02 1.02 82 1005.6
20260506203432 20 209 9.7 19.3 0.00 1.02 1.02 83 1005.6
20260506203421 20 240 9.7 19.3 0.00 1.02 1.02 82 1005.6
20260506203301 20 228 9.7 19.3 0.00 1.02 1.02 82 1005.5
20260506203102 20 191 8.0 19.3 0.00 1.02 1.02 82 1005.6
20260506203054 20 173 9.7 19.3 0.00 1.02 1.02 82 1005.6
20260506202833 20 200 8.0 17.7 0.00 1.02 1.02 82 1005.6
20260506202733 20 173 8.0 17.7 0.00 1.02 1.02 82 1005.6
20260506202652 20 208 8.0 14.5 0.00 1.02 1.02 83 1005.6
20260506202644 20 207 8.0 17.7 0.00 1.02 1.02 83 1005.6
20260506202500 20 232 6.4 16.1 0.00 1.02 1.02 83 1005.5
20260506202450 20 216 6.4 14.5 0.00 1.02 1.02 83 1005.5
20260506202330 20 236 6.4 14.5 0.00 1.02 1.02 83 1005.5
20260506202115 20 186 6.4 16.1 0.00 1.02 1.02 83 1005.5
20260506202009 20 172 6.4 16.1 0.00 1.02 1.02 83 1005.5
20260506201910 20 182 6.4 16.1 0.00 1.02 1.02 83 1005.5
20260506201804 20 241 6.4 16.1 0.00 1.02 1.02 83 1005.5
20260506201703 20 188 6.4 16.1 0.00 1.02 1.02 83 1005.6
20260506201557 20 212 4.8 16.1 0.00 1.02 1.02 84 1005.6
20260506201458 20 124 4.8 16.1 0.00 1.02 1.02 84 1005.5
20260506201350 20 217 6.4 16.1 0.00 1.02 1.02 84 1005.6
20260506201251 20 211 6.4 16.1 0.00 1.02 1.02 84 1005.6
20260506201145 20 207 6.4 16.1 0.00 1.02 1.02 84 1005.6
20260506201045 20 242 6.4 16.1 0.00 1.02 1.02 84 1005.6
20260506201003 20 188 6.4 16.1 0.00 1.02 1.02 84 1005.6
20260506200954 20 194 6.4 16.1 0.00 1.02 1.02 85 1005.5
20260506200733 20 181 6.4 16.1 0.00 1.02 1.02 84 1005.6
20260506200633 20 170 8.0 16.1 0.00 1.02 1.02 84 1005.7
20260506200527 20 167 8.0 16.1 0.00 1.02 1.02 84 1005.6
20260506200444 20 147 8.0 16.1 0.00 1.02 1.02 85 1005.7
20260506200437 20 179 8.0 16.1 0.00 1.02 1.02 85 1005.6
20260506200221 20 211 8.0 16.1 0.00 1.02 1.02 85 1005.6
20260506200115 19 226 8.0 16.1 0.00 1.02 1.02 85 1005.6
20260506200015 19 186 8.0 16.1 0.00 1.02 1.02 85 1005.6
20260506195909 19 207 8.0 16.1 0.00 1.02 1.02 85 1005.6
20260506195826 19 218 8.0 16.1 0.00 1.02 1.02 84 1005.6
20260506195819 19 218 8.0 16.1 0.00 1.02 1.02 85 1005.6
20260506195603 19 208 8.0 16.1 0.00 1.02 1.02 85 1005.6
20260506195458 19 229 6.4 14.5 0.00 1.02 1.02 85 1005.6
20260506195415 19 266 6.4 14.5 0.00 1.02 1.02 86 1005.6
20260506195408 19 228 6.4 14.5 0.00 1.02 1.02 86 1005.7
20260506195232 18 200 8.0 14.5 0.00 1.02 1.02 86 1005.7
20260506195221 19 230 6.4 14.5 0.00 1.02 1.02 86 1005.7
20260506195101 19 211 8.0 14.5 0.00 1.02 1.02 86 1005.7
20260506195046 19 228 8.0 14.5 0.00 1.02 1.02 86 1005.7
20260506194927 19 167 6.4 14.5 0.00 1.02 1.02 86 1005.7
20260506194807 19 217 8.0 14.5 0.00 1.02 1.02 86 1005.7
20260506194649 18 238 8.0 14.5 0.00 1.02 1.02 86 1005.7
20260506194427 18 193 8.0 17.7 0.00 1.02 1.02 86 1005.8
20260506194330 18 182 9.7 17.7 0.00 1.02 1.02 86 1005.8
20260506194324 18 201 9.7 17.7 0.00 1.02 1.02 86 1005.9
20260506194309 18 279 9.7 17.7 0.00 1.02 1.02 86 1005.8
20260506194155 18 210 9.7 17.7 0.00 1.02 1.02 86 1005.9
20260506194146 18 222 9.7 17.7 0.00 1.02 1.02 86 1005.8
20260506193809 18 206 9.7 19.3 0.00 1.02 1.02 86 1005.9
20260506193709 18 196 9.7 19.3 0.00 1.02 1.02 86 1005.9
20260506193604 18 202 9.7 19.3 0.00 1.02 1.02 86 1005.9
20260506193502 18 204 9.7 19.3 0.00 1.02 1.02 86 1005.9
20260506193357 18 194 9.7 19.3 0.00 1.02 1.02 86 1005.9
20260506193257 18 205 11.3 19.3 0.00 1.02 1.02 86 1005.9
20260506193151 18 198 11.3 19.3 0.00 1.02 1.02 86 1005.9
20260506193051 18 194 9.7 19.3 0.00 1.02 1.02 86 1005.9
20260506192945 18 219 11.3 19.3 0.00 1.02 1.02 86 1005.9
20260506192845 18 184 9.7 19.3 0.00 1.02 1.02 86 1005.9
20260506192739 18 195 9.7 19.3 0.00 1.02 1.02 86 1005.9
20260506192639 18 207 9.7 19.3 0.00 1.02 1.02 86 1005.9
20260506192533 18 188 9.7 19.3 0.00 1.02 1.02 86 1005.8
20260506192433 18 225 8.0 19.3 0.00 1.02 1.02 86 1005.9
20260506192327 18 221 8.0 17.7 0.00 1.02 1.02 86 1005.9
20260506192227 18 217 8.0 17.7 0.00 1.02 1.02 86 1005.9
20260506192122 18 202 8.0 17.7 0.00 1.02 1.02 87 1005.9
20260506192021 18 221 6.4 17.7 0.00 1.02 1.02 87 1005.9
20260506191936 18 231 6.4 17.7 0.00 1.02 1.02 87 1005.9
20260506191929 18 194 6.4 17.7 0.00 1.02 1.02 87 1005.9
20260506191747 18 207 6.4 17.7 0.00 1.02 1.02 87 1005.9
20260506191737 18 232 6.4 17.7 0.00 1.02 1.02 87 1005.9
20260506191619 18 182 6.4 17.7 0.00 1.02 1.02 86 1005.9
20260506191402 18 218 6.4 17.7 0.00 1.02 1.02 87 1005.9
20260506191257 18 221 4.8 17.7 0.00 1.02 1.02 87 1005.9
20260506191157 18 198 4.8 17.7 0.00 1.02 1.02 87 1005.9
20260506191051 18 198 6.4 17.7 0.00 1.02 1.02 87 1005.9
20260506191007 18 171 6.4 17.7 0.00 1.02 1.02 87 1005.9
20260506191001 18 171 6.4 17.7 0.00 1.02 1.02 87 1005.9
20260506190801 18 174 6.4 17.7 0.00 1.02 1.02 87 1005.9
20260506190754 18 225 6.4 17.7 0.00 1.02 1.02 87 1005.9
20260506190539 18 196 8.0 17.7 0.00 1.02 1.02 87 1005.9
20260506190456 18 211 6.4 17.7 0.00 1.02 1.02 87 1006.0
20260506190449 18 197 8.0 17.7 0.00 1.02 1.02 87 1005.9
20260506190226 18 203 6.4 17.7 0.00 1.02 1.02 87 1005.9
20260506190127 18 209 6.4 17.7 0.00 1.02 1.02 87 1005.9
20260506190021 18 240 6.4 17.7 0.00 1.02 1.02 87 1005.9
20260506185921 18 227 6.4 17.7 0.00 1.02 1.02 87 1006.0
20260506185815 18 211 6.4 17.7 0.00 1.02 1.02 87 1005.9
20260506185715 18 168 4.8 17.7 0.00 1.02 1.02 87 1006.0
20260506185609 18 242 4.8 14.5 0.00 1.02 1.02 86 1006.0
20260506185509 18 213 4.8 14.5 0.00 1.02 1.02 86 1006.0
20260506185404 18 198 4.8 11.3 0.00 1.02 1.02 86 1006.0
20260506185306 18 198 4.8 14.5 0.00 1.02 1.02 86 1006.0
20260506185157 18 182 4.8 14.5 0.00 1.02 1.02 86 1006.0
20260506185057 17 178 4.8 14.5 0.00 1.02 1.02 86 1006.0
20260506184952 17 227 4.8 14.5 0.00 1.02 1.02 86 1006.0
20260506184851 17 189 4.8 14.5 0.00 1.02 1.02 86 1006.0
20260506184746 17 185 4.8 14.5 0.00 1.02 1.02 86 1006.0
20260506184645 17 185 4.8 14.5 0.00 1.02 1.02 86 1006.1
20260506184540 17 181 4.8 14.5 0.00 1.02 1.02 86 1006.1
20260506184454 17 213 6.4 14.5 0.00 1.02 1.02 86 1006.1
20260506184448 17 233 6.4 14.5 0.00 1.02 1.02 86 1006.1
20260506184233 17 212 6.4 14.5 0.00 1.02 1.02 86 1006.1
20260506184127 17 205 6.4 14.5 0.00 1.02 1.02 86 1006.2
20260506184042 17 198 6.4 14.5 0.00 1.02 1.02 86 1006.2
20260506184036 17 198 6.4 14.5 0.00 1.02 1.02 86 1006.2
20260506183838 17 194 6.4 14.5 0.00 1.02 1.02 86 1006.3
20260506183831 17 198 6.4 14.5 0.00 1.02 1.02 86 1006.2
20260506183632 17 174 6.4 14.5 0.00 1.02 1.02 85 1006.2
20260506183624 17 163 6.4 14.5 0.00 1.02 1.02 85 1006.3
20260506183409 17 198 4.8 14.5 0.00 1.02 1.02 86 1006.2
20260506183303 17 169 4.8 12.9 0.00 1.02 1.02 85 1006.3
20260506183202 17 202 4.8 12.9 0.00 1.02 1.02 85 1006.2
20260506183057 17 205 4.8 12.9 0.00 1.02 1.02 85 1006.3
20260506182957 17 206 4.8 12.9 0.00 1.02 1.02 84 1006.3
20260506182851 17 192 4.8 12.9 0.00 1.02 1.02 84 1006.2
20260506182751 17 170 4.8 12.9 0.00 1.02 1.02 83 1006.3
20260506182645 17 186 4.8 12.9 0.00 1.02 1.02 83 1006.3
20260506182545 17 186 4.8 12.9 0.00 1.02 1.02 83 1006.3
20260506182439 17 186 4.8 12.9 0.00 1.02 1.02 84 1006.3
20260506182338 17 186 6.4 12.9 0.00 1.02 1.02 84 1006.2
20260506182256 17 188 4.8 14.5 0.00 1.02 1.02 84 1006.2
20260506182249 17 184 6.4 14.5 0.00 1.02 1.02 84 1006.3
20260506182027 17 207 6.4 14.5 0.00 1.02 1.02 83 1006.3
20260506181927 17 207 6.4 14.5 0.00 1.02 1.02 83 1006.3
20260506181820 17 190 6.4 14.5 0.00 1.02 1.02 83 1006.3
20260506181721 17 188 6.4 14.5 0.00 1.02 1.02 83 1006.3
20260506181621 17 138 6.4 14.5 0.00 1.02 1.02 84 1006.3
20260506181521 17 175 6.4 14.5 0.00 1.02 1.02 84 1006.3
20260506181420 17 188 6.4 14.5 0.00 1.02 1.02 84 1006.3
20260506181318 17 187 8.0 14.5 0.00 1.02 1.02 83 1006.3
20260506181218 16 166 8.0 14.5 0.00 1.02 1.02 83 1006.3
20260506181157 16 191 8.0 19.3 0.00 1.02 1.02 84 1006.3
20260506181154 16 168 8.0 19.3 0.00 1.02 1.02 83 1006.4
20260506181143 16 191 8.0 19.3 0.00 1.02 1.02 83 1006.3
20260506180813 16 178 8.0 19.3 0.00 1.02 1.02 83 1006.4
20260506180706 16 180 9.7 19.3 0.00 1.02 1.02 84 1006.4
20260506180648 16 167 9.7 19.3 0.00 1.02 1.02 84 1006.4
20260506180643 16 190 8.0 19.3 0.00 1.02 1.02 84 1006.4
20260506180633 16 198 9.7 19.3 0.00 1.02 1.02 84 1006.4
20260506180256 16 190 8.0 19.3 0.00 1.02 1.02 83 1006.4
20260506180155 16 189 8.0 19.3 0.00 1.02 1.02 83 1006.4
20260506180048 16 188 8.0 19.3 0.00 1.02 1.02 83 1006.4
20260506175949 16 199 9.7 19.3 0.00 1.02 1.02 83 1006.4
20260506175907 16 182 8.0 19.3 0.00 1.02 1.02 83 1006.4
20260506175858 16 183 8.0 19.3 0.00 1.02 1.02 83 1006.4
20260506175636 16 182 8.0 19.3 0.00 1.02 1.02 83 1006.4
20260506175537 16 193 8.0 19.3 0.00 1.02 1.02 82 1006.4
20260506175430 16 197 8.0 19.3 0.00 1.02 1.02 83 1006.4
20260506175331 16 202 8.0 19.3 0.00 1.02 1.02 83 1006.4
20260506175223 16 175 8.0 19.3 0.00 1.02 1.02 83 1006.4
20260506175208 16 171 8.0 16.1 0.00 1.02 1.02 83 1006.4
20260506175156 16 183 8.0 19.3 0.00 1.02 1.02 83 1006.4
20260506175036 16 202 8.0 17.7 0.00 1.02 1.02 83 1006.4
20260506174812 16 234 8.0 16.1 0.00 1.02 1.02 83 1006.4
20260506174713 16 184 8.0 16.1 0.00 1.02 1.02 84 1006.4
20260506174606 16 185 8.0 19.3 0.00 1.02 1.02 84 1006.4
20260506174506 16 180 8.0 19.3 0.00 1.02 1.02 84 1006.4
20260506174400 16 165 8.0 19.3 0.00 1.02 1.02 84 1006.4
20260506174301 16 193 8.0 19.3 0.00 1.02 1.02 84 1006.6
20260506174154 16 202 8.0 19.3 0.00 1.02 1.02 84 1006.6
20260506174113 16 174 8.0 19.3 0.00 1.02 1.02 84 1006.6
20260506174105 16 184 8.0 19.3 0.00 1.02 1.02 84 1006.6
20260506173849 16 213 8.0 19.3 0.00 1.02 1.02 84 1006.4
20260506173743 16 178 8.0 19.3 0.00 1.02 1.02 84 1006.4
20260506173643 16 217 9.7 19.3 0.00 1.02 1.02 84 1006.4
20260506173537 16 209 9.7 19.3 0.00 1.02 1.02 84 1006.4
20260506173455 16 198 9.7 19.3 0.00 1.02 1.02 84 1006.3
20260506173447 16 177 9.7 19.3 0.00 1.02 1.02 84 1006.4
20260506173231 16 173 9.7 19.3 0.00 1.02 1.02 84 1006.4
20260506173125 16 211 9.7 19.3 0.00 1.02 1.02 84 1006.3
20260506173025 16 227 9.7 19.3 0.00 1.02 1.02 84 1006.4
20260506172918 16 183 9.7 19.3 0.00 1.02 1.02 84 1006.4
20260506172819 16 233 9.7 19.3 0.00 1.02 1.02 84 1006.4
20260506172714 16 188 9.7 19.3 0.00 1.02 1.02 84 1006.4
20260506172638 16 202 8.0 17.7 0.00 1.02 1.02 84 1006.4
20260506172629 16 203 9.7 17.7 0.00 1.02 1.02 84 1006.4
20260506172413 16 188 8.0 16.1 0.00 1.02 1.02 83 1006.4
20260506172312 16 189 8.0 16.1 0.00 1.02 1.02 83 1006.4
20260506172210 16 177 8.0 16.1 0.00 1.02 1.02 83 1006.3
20260506172110 16 181 9.7 16.1 0.00 1.02 1.02 83 1006.4
20260506172011 16 203 8.0 16.1 0.00 1.02 1.02 84 1006.4
20260506171911 16 163 9.7 20.9 0.00 1.02 1.02 84 1006.4
20260506171828 16 198 8.0 20.9 0.00 1.02 1.02 84 1006.6
20260506171820 16 186 8.0 20.9 0.00 1.02 1.02 84 1006.4
20260506171622 16 217 8.0 20.9 0.00 1.02 1.02 83 1006.6
20260506171614 16 221 8.0 20.9 0.00 1.02 1.02 84 1006.6
20260506171352 16 209 9.7 20.9 0.00 1.02 1.02 83 1006.6
20260506171253 16 173 9.7 20.9 0.00 1.02 1.02 83 1006.4
20260506171211 16 194 8.0 20.9 0.00 1.02 1.02 83 1006.6
20260506171203 16 200 8.0 20.9 0.00 1.02 1.02 83 1006.6
20260506170941 16 186 8.0 20.9 0.00 1.02 1.02 83 1006.4
20260506170841 16 161 8.0 20.9 0.00 1.02 1.02 83 1006.4
20260506170735 16 183 8.0 20.9 0.00 1.02 1.02 83 1006.4
20260506170647 16 173 8.0 20.9 0.00 1.02 1.02 83 1006.4
20260506170549 16 200 8.0 20.9 0.00 1.02 1.02 83 1006.6
20260506170542 16 173 8.0 20.9 0.00 1.02 1.02 83 1006.4
20260506170327 16 196 8.0 20.9 0.00 1.02 1.02 83 1006.6
20260506170227 16 190 8.0 20.9 0.00 1.02 1.02 83 1006.6
20260506170127 16 180 9.7 20.9 0.00 1.02 1.02 83 1006.6
20260506170025 16 176 8.0 20.9 0.00 1.02 1.02 83 1006.6
20260506165924 16 206 8.0 19.3 0.00 1.02 1.02 83 1006.6
20260506165826 16 190 8.0 19.3 0.00 1.02 1.02 83 1006.6
20260506165725 16 187 9.7 19.3 0.00 1.02 1.02 83 1006.6
20260506165619 16 213 9.7 19.3 0.00 1.02 1.02 83 1006.6
20260506165519 16 180 9.7 19.3 0.00 1.02 1.02 83 1006.6
20260506165413 16 182 9.7 19.3 0.00 1.02 1.02 83 1006.6
20260506165314 16 188 9.7 19.3 0.00 1.02 1.02 83 1006.6
20260506165207 16 207 9.7 29.0 0.00 1.02 1.02 83 1006.4
20260506165107 16 178 9.7 29.0 0.00 1.02 1.02 83 1006.6
20260506165001 16 175 9.7 29.0 0.00 1.02 1.02 83 1006.6
20260506164901 16 218 9.7 29.0 0.00 1.02 1.02 83 1006.6
20260506164818 16 195 9.7 29.0 0.00 1.02 1.02 83 1006.6
20260506164810 16 188 11.3 29.0 0.00 1.02 1.02 83 1006.6
20260506164551 16 207 9.7 29.0 0.00 1.02 1.02 83 1006.6
20260506164450 16 245 11.3 29.0 0.00 1.02 1.02 83 1006.7
20260506164351 16 204 11.3 29.0 0.00 1.02 1.02 83 1006.6
20260506164314 16 194 9.7 29.0 0.00 1.02 1.02 83 1006.6
20260506164305 16 178 11.3 29.0 0.00 1.02 1.02 83 1006.6
20260506164051 16 192 9.7 29.0 0.00 1.02 1.02 83 1006.6
20260506164008 16 200 8.0 29.0 0.00 1.02 1.02 83 1006.7
20260506164001 16 180 9.7 29.0 0.00 1.02 1.02 83 1006.6
20260506163745 16 209 8.0 29.0 0.00 1.02 1.02 82 1006.6
20260506163639 16 167 8.0 29.0 0.00 1.02 1.02 82 1006.6
20260506163538 16 209 6.4 29.0 0.00 1.02 1.02 82 1006.6
20260506163438 16 184 6.4 29.0 0.00 1.02 1.02 82 1006.6
20260506163339 16 229 6.4 29.0 0.00 1.02 1.02 82 1006.6
20260506163239 16 200 8.0 29.0 0.00 1.02 1.02 82 1006.6
20260506163139 16 204 8.0 29.0 0.00 1.02 1.02 82 1006.6
20260506163039 16 208 8.0 29.0 0.00 1.02 1.02 82 1006.6
20260506162934 16 198 8.0 29.0 0.00 1.02 1.02 82 1006.6
20260506162832 16 175 8.0 29.0 0.00 1.02 1.02 82 1006.6
20260506162729 16 186 8.0 29.0 0.00 1.02 1.02 82 1006.6
20260506162626 16 205 9.7 29.0 0.00 1.02 1.02 82 1006.6
20260506162528 16 215 9.7 29.0 0.00 1.02 1.02 82 1006.7
20260506162426 16 186 9.7 29.0 0.00 1.02 1.02 82 1006.7
20260506162411 16 188 8.0 16.1 0.00 1.02 1.02 82 1006.7
20260506162407 16 211 6.4 16.1 0.00 1.02 1.02 82 1006.6
20260506162357 16 188 8.0 29.0 0.00 1.02 1.02 82 1006.7
20260506162021 16 197 6.4 14.5 0.00 1.02 1.02 82 1006.7
20260506161921 16 220 6.4 14.5 0.00 1.02 1.02 82 1006.7
20260506161816 16 198 6.4 14.5 0.00 1.02 1.02 82 1006.7
20260506161713 16 198 6.4 14.5 0.00 1.02 1.02 82 1006.7
20260506161614 16 180 6.4 14.5 0.03 1.02 1.02 82 1006.7
20260506161534 16 174 6.4 12.9 0.03 1.02 1.02 82 1006.7
20260506161527 16 187 6.4 14.5 0.03 1.02 1.02 82 1006.7
20260506161333 16 181 6.4 12.9 0.03 1.02 1.02 82 1006.7
20260506161325 16 181 6.4 12.9 0.03 1.02 1.02 82 1006.7
20260506161110 16 190 6.4 25.7 0.03 1.02 1.02 82 1006.7
20260506161009 16 205 6.4 25.7 0.05 1.02 1.02 82 1006.7
20260506160903 16 205 8.0 25.7 0.05 1.02 1.02 82 1006.7
20260506160803 16 186 8.0 25.7 0.05 1.02 1.02 82 1006.8
20260506160656 16 185 8.0 25.7 0.05 1.02 1.02 82 1006.7
20260506160557 16 184 9.7 25.7 0.05 1.02 1.02 82 1006.7
20260506160451 16 186 9.7 25.7 0.08 1.02 1.02 82 1006.8
20260506160351 16 197 9.7 25.7 0.08 1.02 1.02 82 1006.7
20260506160308 16 184 11.3 25.7 0.10 1.02 1.02 82 1006.7
20260506160300 16 192 9.7 25.7 0.08 1.02 1.02 82 1006.7
20260506160039 16 210 11.3 25.7 0.10 1.02 1.02 82 1006.8
20260506155956 16 211 11.3 25.7 0.10 1.02 1.02 82 1006.8
20260506155949 16 198 11.3 25.7 0.10 1.02 1.02 82 1006.7
20260506155735 16 193 11.3 25.7 0.10 1.02 1.02 82 1006.7
20260506155626 16 178 11.3 25.7 0.13 1.02 1.02 82 1006.7
20260506155527 16 186 11.3 25.7 0.13 1.02 1.02 82 1006.7
20260506155421 16 193 11.3 25.7 0.13 1.02 1.02 82 1006.8
20260506155321 16 171 11.3 25.7 0.15 1.02 1.02 82 1006.7
20260506155239 16 173 9.7 20.9 0.15 1.02 1.02 82 1006.7
20260506155231 16 202 11.3 25.7 0.15 1.02 1.02 82 1006.8
20260506155016 16 179 9.7 20.9 0.18 1.02 1.02 82 1006.8
20260506154917 16 171 9.7 20.9 0.18 1.02 1.02 82 1006.8
20260506154817 16 196 11.3 20.9 0.18 1.02 1.02 82 1006.8
20260506154740 16 190 11.3 20.9 0.20 1.02 1.02 82 1006.7
20260506154733 16 194 11.3 20.9 0.18 1.02 1.02 82 1006.7
20260506154514 16 187 9.7 20.9 0.20 1.02 1.02 81 1006.7
20260506154414 16 181 11.3 20.9 0.20 1.02 1.02 82 1006.7
20260506154314 16 215 9.7 20.9 0.23 1.02 1.02 81 1006.7
20260506154223 16 176 11.3 20.9 0.25 1.02 1.02 81 1006.8
20260506154217 16 186 9.7 20.9 0.23 1.02 1.02 81 1006.7
20260506154212 16 190 11.3 20.9 0.25 1.02 1.02 81 1006.7
20260506154159 16 152 11.3 20.9 0.23 1.02 1.02 81 1006.7
20260506154040 16 182 11.3 20.9 0.25 1.02 1.02 81 1006.7
20260506153708 16 188 11.3 20.9 0.28 1.02 1.02 81 1006.7
20260506153609 16 179 11.3 20.9 0.28 1.02 1.02 81 1006.7
20260506153509 16 198 11.3 20.9 0.28 1.02 1.02 81 1006.7
20260506153408 16 173 9.7 20.9 0.28 1.02 1.02 82 1006.7
20260506153306 16 173 9.7 20.9 0.30 1.02 1.02 82 1006.7
20260506153208 16 181 9.7 20.9 0.30 1.02 1.02 82 1006.7
20260506153106 16 178 8.0 20.9 0.30 1.02 1.02 81 1006.7
20260506153007 16 207 8.0 20.9 0.33 1.02 1.02 82 1006.7
20260506152900 16 217 8.0 20.9 0.33 1.02 1.02 82 1006.7
20260506152801 16 190 8.0 20.9 0.33 1.02 1.02 81 1006.6
20260506152655 16 159 8.0 20.9 0.33 1.02 1.02 81 1006.4
20260506152634 16 199 8.0 24.1 0.38 1.02 1.02 81 1006.6
20260506152630 16 201 9.7 24.1 0.38 1.02 1.02 81 1006.6
20260506152620 16 180 8.0 20.9 0.36 1.02 1.02 81 1006.6
20260506152243 16 215 9.7 24.1 0.41 1.02 1.02 81 1006.6
20260506152200 16 180 9.7 24.1 0.46 1.02 1.02 81 1006.6
20260506152153 16 180 9.7 24.1 0.43 1.02 1.02 82 1006.6
20260506151937 16 165 9.7 24.1 0.46 1.02 1.02 82 1006.6
20260506151830 16 199 9.7 24.1 0.46 1.02 1.02 81 1006.6
20260506151731 16 181 9.7 24.1 0.46 1.02 1.02 81 1006.6
20260506151624 16 204 9.7 24.1 0.46 1.02 1.02 81 1006.6
20260506151525 16 163 9.7 24.1 0.43 0.99 0.99 81 1006.6
20260506151422 16 173 9.7 24.1 0.46 0.99 0.99 81 1006.4
20260506151322 16 173 9.7 24.1 0.46 0.99 0.99 81 1006.7
20260506151223 16 198 9.7 24.1 0.46 0.99 0.99 81 1006.7
20260506151122 15 165 9.7 24.1 0.46 0.99 0.99 81 1006.6
20260506151023 15 176 9.7 24.1 0.43 0.97 0.99 81 1006.7
20260506150923 15 149 9.7 24.1 0.46 0.97 0.97 81 1006.6
20260506150823 15 151 9.7 24.1 0.46 0.97 0.97 81 1006.4
20260506150717 15 169 9.7 24.1 0.48 0.97 0.97 81 1006.4
20260506150617 15 188 9.7 24.1 0.48 0.97 0.97 81 1006.6
20260506150512 15 109 9.7 19.3 0.46 0.94 0.97 81 1006.6
20260506150411 15 207 8.0 19.3 0.46 0.94 0.94 81 1006.7
20260506150305 15 184 8.0 19.3 0.46 0.94 0.94 81 1006.7
20260506150203 15 180 8.0 19.3 0.43 0.91 0.94 82 1006.7
20260506150128 15 190 8.0 19.3 0.43 0.91 0.91 82 1006.8
20260506150120 15 176 8.0 19.3 0.43 0.91 0.91 82 1006.8
20260506145904 15 152 8.0 19.3 0.43 0.91 0.91 82 1006.8
20260506145805 15 196 8.0 19.3 0.43 0.91 0.91 82 1006.8
20260506145705 15 178 8.0 19.3 0.41 0.89 0.89 82 1006.8
20260506145642 15 184 8.0 19.3 0.41 0.86 0.86 82 1007.0
20260506145637 15 165 8.0 19.3 0.41 0.86 0.89 82 1006.9
20260506145627 15 148 8.0 19.3 0.43 0.89 0.89 82 1006.8
20260506145612 15 190 8.0 19.3 0.43 0.89 0.89 82 1006.8
20260506145344 15 172 8.0 19.3 0.41 0.86 0.86 82 1007.0
20260506145333 15 179 8.0 19.3 0.41 0.86 0.86 82 1006.9
20260506145018 15 174 9.7 16.1 0.41 0.84 0.84 83 1007.1
20260506145011 15 171 8.0 16.1 0.38 0.84 0.86 83 1007.1
20260506144755 15 198 9.7 16.1 0.41 0.84 0.84 83 1007.1
20260506144649 15 184 9.7 16.1 0.38 0.81 0.84 83 1007.2
20260506144549 15 192 9.7 20.9 0.38 0.81 0.81 83 1007.2
20260506144506 15 182 9.7 20.9 0.38 0.79 0.81 83 1007.2
20260506144458 15 146 9.7 20.9 0.41 0.81 0.81 83 1007.2
20260506144236 15 182 9.7 20.9 0.38 0.79 0.79 83 1007.3
20260506144136 15 137 9.7 20.9 0.41 0.79 0.79 83 1007.3
20260506144031 15 192 9.7 20.9 0.41 0.79 0.79 83 1007.4
20260506143931 15 196 9.7 20.9 0.38 0.76 0.79 83 1007.4
20260506143825 15 175 9.7 20.9 0.41 0.76 0.76 83 1007.4
20260506143725 15 177 9.7 20.9 0.38 0.74 0.76 84 1007.5
20260506143621 15 190 11.3 20.9 0.38 0.74 0.74 84 1007.4
20260506143522 15 155 11.3 20.9 0.38 0.74 0.74 84 1007.5
20260506143422 15 161 11.3 20.9 0.38 0.74 0.74 84 1007.5
20260506143322 15 177 11.3 20.9 0.38 0.71 0.74 84 1007.5
20260506143222 15 155 11.3 20.9 0.38 0.71 0.71 84 1007.5
20260506143122 15 175 11.3 20.9 0.38 0.71 0.71 84 1007.6
20260506143023 16 217 11.3 20.9 0.38 0.71 0.71 84 1007.6
20260506142923 16 176 11.3 20.9 0.36 0.69 0.71 84 1007.7
20260506142824 16 198 11.3 20.9 0.38 0.69 0.69 84 1007.7
20260506142723 16 216 11.3 20.9 0.38 0.69 0.69 84 1007.6
20260506142620 16 210 9.7 20.9 0.36 0.66 0.66 84 1007.6
20260506142520 16 159 9.7 20.9 0.36 0.64 0.66 84 1007.5
20260506142420 16 184 8.0 16.1 0.36 0.64 0.64 84 1007.6
20260506142338 16 190 8.0 16.1 0.33 0.61 0.61 84 1007.6
20260506142331 16 178 8.0 16.1 0.33 0.61 0.61 84 1007.5
20260506142115 16 186 8.0 16.1 0.33 0.58 0.58 84 1007.5
20260506142032 16 205 8.0 16.1 0.30 0.56 0.56 84 1007.5
20260506142024 16 199 8.0 16.1 0.30 0.56 0.58 84 1007.6
20260506141826 16 205 8.0 16.1 0.33 0.56 0.56 84 1007.3
20260506141818 16 190 8.0 16.1 0.33 0.56 0.56 84 1007.4
20260506141557 16 197 8.0 16.1 0.33 0.56 0.56 84 1007.3
20260506141457 16 205 6.4 16.1 0.30 0.53 0.56 84 1007.3
20260506141352 16 188 6.4 16.1 0.30 0.53 0.53 84 1007.3
20260506141251 16 198 8.0 16.1 0.30 0.53 0.53 84 1007.3
20260506141145 16 190 8.0 16.1 0.30 0.53 0.53 84 1007.2
20260506141045 16 174 8.0 16.1 0.33 0.53 0.53 84 1007.2
20260506141002 16 218 8.0 16.1 0.30 0.51 0.51 84 1007.2
20260506140954 16 200 8.0 16.1 0.30 0.51 0.53 84 1007.3
20260506140734 16 186 8.0 16.1 0.28 0.48 0.48 84 1007.2
20260506140729 16 166 8.0 16.1 0.28 0.48 0.48 84 1007.0
20260506140723 16 186 8.0 16.1 0.28 0.48 0.48 84 1007.0
20260506140719 16 204 8.0 16.1 0.28 0.48 0.48 84 1007.0
20260506140708 16 169 8.0 16.1 0.28 0.48 0.48 84 1007.1
20260506140221 16 192 8.0 16.1 0.28 0.48 0.48 84 1007.0
20260506140116 16 194 8.0 14.5 0.28 0.48 0.48 84 1007.0
20260506140014 16 194 6.4 14.5 0.28 0.48 0.48 84 1007.0
20260506135909 16 224 6.4 14.5 0.28 0.48 0.48 84 1007.0
20260506135809 16 187 6.4 17.7 0.28 0.48 0.48 84 1007.0
20260506135703 16 182 6.4 17.7 0.28 0.48 0.48 84 1007.0
20260506135603 16 192 6.4 17.7 0.25 0.46 0.46 84 1007.0
20260506135536 16 186 6.4 17.7 0.25 0.46 0.46 84 1006.9
20260506135526 16 181 6.4 17.7 0.25 0.46 0.46 84 1006.9
20260506135406 16 176 6.4 17.7 0.25 0.46 0.46 84 1007.0
20260506135208 16 184 6.4 17.7 0.25 0.46 0.46 85 1006.9
20260506135200 16 207 6.4 17.7 0.25 0.46 0.46 85 1006.9
20260506134944 16 196 8.0 17.7 0.25 0.46 0.46 85 1006.9
20260506134900 15 184 8.0 17.7 0.23 0.43 0.43 85 1006.9
20260506134851 15 182 8.0 17.7 0.23 0.43 0.46 85 1007.0
20260506134632 15 187 8.0 17.7 0.23 0.43 0.43 85 1006.9
20260506134533 15 192 6.4 17.7 0.23 0.43 0.43 85 1006.9
20260506134433 15 172 8.0 17.7 0.23 0.41 0.43 85 1006.9
20260506134330 15 200 8.0 17.7 0.23 0.41 0.41 85 1006.9
20260506134230 16 183 8.0 19.3 0.23 0.41 0.41 85 1006.9
20260506134130 16 188 8.0 19.3 0.20 0.38 0.38 85 1006.9
20260506134031 16 210 8.0 19.3 0.20 0.38 0.38 85 1006.9
20260506133948 16 180 8.0 19.3 0.18 0.36 0.38 86 1006.9
20260506133939 16 139 8.0 19.3 0.20 0.38 0.38 86 1006.9
20260506133723 16 178 8.0 19.3 0.18 0.36 0.36 86 1006.9
20260506133620 16 173 8.0 19.3 0.18 0.36 0.36 86 1006.9
20260506133521 16 174 8.0 19.3 0.18 0.36 0.36 86 1007.0
20260506133420 16 205 8.0 19.3 0.18 0.36 0.36 86 1007.1
20260506133321 16 187 8.0 19.3 0.15 0.33 0.36 86 1007.0
20260506133221 16 195 8.0 19.3 0.18 0.33 0.33 86 1007.1
20260506133121 16 215 8.0 19.3 0.18 0.33 0.33 86 1007.1
20260506133014 16 196 8.0 19.3 0.18 0.33 0.33 86 1007.1
20260506132913 16 205 8.0 19.3 0.18 0.33 0.33 86 1007.1
20260506132808 16 182 8.0 19.3 0.15 0.30 0.33 86 1007.2
20260506132707 16 210 8.0 19.3 0.15 0.30 0.30 86 1007.1
20260506132607 16 209 8.0 19.3 0.13 0.28 0.30 86 1007.1
20260506132506 16 200 8.0 19.3 0.13 0.28 0.28 86 1007.2
20260506132406 16 184 8.0 19.3 0.13 0.28 0.28 86 1007.1
20260506132307 16 177 8.0 16.1 0.13 0.28 0.28 86 1007.2
20260506132207 16 200 8.0 16.1 0.13 0.28 0.28 86 1007.2
20260506132100 16 218 8.0 16.1 0.10 0.25 0.28 86 1007.2
20260506132000 16 206 8.0 16.1 0.13 0.25 0.25 86 1007.2
20260506131857 16 194 8.0 16.1 0.13 0.25 0.25 86 1007.1
20260506131758 16 192 9.7 16.1 0.10 0.23 0.25 86 1007.2
20260506131658 16 232 9.7 16.1 0.10 0.23 0.23 86 1007.2
20260506131558 16 194 9.7 16.1 0.10 0.23 0.23 86 1007.3
20260506131459 16 201 8.0 16.1 0.10 0.23 0.23 86 1007.2
20260506131352 16 222 8.0 16.1 0.10 0.23 0.23 86 1007.2
20260506131253 16 232 8.0 16.1 0.10 0.23 0.23 86 1007.1
20260506131147 16 225 8.0 16.1 0.10 0.23 0.23 86 1007.1
20260506131046 16 213 8.0 19.3 0.08 0.20 0.23 86 1007.1
20260506131008 16 208 8.0 19.3 0.10 0.20 0.20 86 1007.1
20260506131001 16 223 8.0 19.3 0.10 0.20 0.20 86 1007.1
20260506130744 16 206 8.0 19.3 0.10 0.20 0.20 86 1007.0
20260506130645 16 207 8.0 19.3 0.10 0.20 0.20 86 1007.0
20260506130544 16 227 8.0 19.3 0.10 0.20 0.20 86 1007.1
20260506130502 16 215 8.0 19.3 0.10 0.20 0.20 86 1007.0
20260506130455 16 221 8.0 19.3 0.10 0.20 0.20 86 1007.1
20260506130233 16 211 8.0 19.3 0.10 0.20 0.20 86 1007.1
20260506130132 16 206 9.7 19.3 0.10 0.20 0.20 86 1007.1
20260506130027 16 195 9.7 19.3 0.10 0.20 0.20 86 1007.1
20260506125927 16 209 9.7 19.3 0.13 0.20 0.20 86 1007.0
20260506125827 16 201 9.7 22.5 0.13 0.20 0.20 86 1006.9
20260506125726 16 192 9.7 22.5 0.13 0.20 0.20 86 1006.9
20260506125627 16 166 9.7 22.5 0.13 0.20 0.20 86 1007.0
20260506125526 16 196 9.7 22.5 0.13 0.20 0.20 86 1007.0
20260506125427 16 227 9.7 22.5 0.15 0.20 0.20 86 1007.1
20260506125341 16 174 9.7 22.5 0.15 0.20 0.20 86 1007.0
20260506125335 16 225 9.7 22.5 0.15 0.20 0.20 86 1007.1
20260506125121 16 199 9.7 22.5 0.15 0.20 0.20 86 1007.0
20260506125020 16 178 8.0 22.5 0.15 0.20 0.20 86 1007.1
20260506124919 16 204 8.0 22.5 0.15 0.20 0.20 86 1007.1
20260506124821 16 198 8.0 17.7 0.15 0.20 0.20 86 1007.1
20260506124719 16 219 8.0 17.7 0.15 0.20 0.20 86 1007.1
20260506124615 16 221 8.0 17.7 0.15 0.20 0.20 86 1007.2
20260506124516 16 219 8.0 17.7 0.15 0.18 0.18 86 1007.2
20260506124417 16 191 8.0 17.7 0.15 0.18 0.18 86 1007.2
20260506124402 16 216 8.0 17.7 0.15 0.18 0.18 86 1007.1
20260506124350 16 198 8.0 17.7 0.15 0.18 0.18 86 1007.1
20260506124230 16 222 8.0 17.7 0.15 0.18 0.18 86 1007.1
20260506124015 16 207 8.0 17.7 0.15 0.18 0.18 86 1007.2
20260506123917 16 193 8.0 24.1 0.15 0.18 0.18 86 1007.1
20260506123810 16 216 8.0 24.1 0.15 0.18 0.18 86 1007.2
20260506123710 16 225 9.7 24.1 0.15 0.18 0.18 86 1007.2
20260506123610 16 207 9.7 24.1 0.15 0.18 0.18 86 1007.2
20260506123510 16 209 9.7 24.1 0.15 0.18 0.18 86 1007.2
20260506123411 16 211 8.0 24.1 0.15 0.18 0.18 86 1007.2
20260506123309 16 219 8.0 24.1 0.15 0.18 0.18 86 1007.2
20260506123210 16 194 9.7 24.1 0.13 0.15 0.18 86 1007.2
20260506123111 16 207 9.7 24.1 0.13 0.15 0.15 86 1007.2
20260506123010 16 221 9.7 24.1 0.13 0.15 0.15 86 1007.2
20260506122910 16 210 11.3 24.1 0.13 0.15 0.15 86 1007.3
20260506122810 16 215 11.3 24.1 0.13 0.15 0.15 86 1007.3
20260506122710 16 218 11.3 24.1 0.15 0.15 0.15 86 1007.3
20260506122611 16 216 11.3 24.1 0.15 0.15 0.15 86 1007.3
20260506122510 16 211 11.3 24.1 0.15 0.15 0.15 86 1007.3
20260506122453 16 211 11.3 24.1 0.15 0.15 0.15 86 1007.3
20260506122449 16 198 11.3 24.1 0.15 0.15 0.15 86 1007.4
20260506122438 16 208 11.3 24.1 0.15 0.15 0.15 86 1007.4
20260506122107 16 222 11.3 24.1 0.15 0.15 0.15 86 1007.4
20260506122031 16 199 9.7 20.9 0.13 0.13 0.13 86 1007.4
20260506122021 16 203 9.7 24.1 0.15 0.15 0.15 86 1007.5
20260506121806 16 207 9.7 20.9 0.13 0.13 0.13 85 1007.4
20260506121706 16 207 8.0 20.9 0.13 0.13 0.13 85 1007.5
20260506121628 16 237 8.0 20.9 0.13 0.13 0.13 85 1007.5
20260506121620 16 209 8.0 20.9 0.13 0.13 0.13 85 1007.5
20260506121405 16 217 8.0 25.7 0.13 0.13 0.13 85 1007.5
20260506121302 16 221 8.0 25.7 0.13 0.13 0.13 85 1007.5
20260506121202 16 217 8.0 25.7 0.13 0.13 0.13 85 1007.5
20260506121104 16 213 8.0 25.7 0.13 0.13 0.13 85 1007.5
20260506120959 16 213 8.0 25.7 0.10 0.10 0.10 85 1007.6
20260506120858 16 226 8.0 25.7 0.10 0.10 0.10 84 1007.6
20260506120757 16 237 9.7 25.7 0.10 0.10 0.10 84 1007.6
20260506120659 16 234 9.7 25.7 0.10 0.10 0.10 84 1007.6
20260506120559 16 216 9.7 25.7 0.10 0.10 0.10 84 1007.6
20260506120459 16 225 9.7 25.7 0.10 0.10 0.10 84 1007.7
20260506120356 16 226 9.7 25.7 0.10 0.10 0.10 84 1007.7
20260506120257 16 222 9.7 25.7 0.10 0.10 0.10 84 1007.7
20260506120157 16 212 9.7 25.7 0.10 0.10 0.10 83 1007.7
20260506120056 16 234 9.7 25.7 0.10 0.10 0.10 83 1007.7
20260506115957 16 230 9.7 25.7 0.10 0.10 0.10 83 1007.7
20260506115856 17 236 9.7 25.7 0.08 0.08 0.10 83 1007.6
20260506115757 17 202 9.7 25.7 0.08 0.08 0.08 83 1007.7
20260506115655 17 241 9.7 25.7 0.08 0.08 0.08 82 1007.7
20260506115552 17 241 9.7 25.7 0.08 0.08 0.08 82 1007.7
20260506115453 17 247 9.7 25.7 0.05 0.05 0.08 82 1007.7
20260506115353 17 234 8.0 17.7 0.05 0.05 0.05 82 1007.7
20260506115252 17 242 8.0 17.7 0.05 0.05 0.05 82 1007.7
20260506115144 17 251 8.0 17.7 0.05 0.05 0.05 82 1007.7
20260506115045 17 246 8.0 17.7 0.05 0.05 0.05 81 1007.6
20260506114944 17 235 8.0 17.7 0.05 0.05 0.05 81 1007.6
20260506114844 17 236 8.0 17.7 0.05 0.05 0.05 81 1007.6
20260506114745 17 242 6.4 16.1 0.05 0.05 0.05 81 1007.5
20260506114645 17 242 6.4 16.1 0.05 0.05 0.05 80 1007.5
20260506114545 17 242 6.4 16.1 0.03 0.03 0.05 80 1007.4
20260506114442 17 240 6.4 16.1 0.03 0.03 0.03 80 1007.5
20260506114343 17 231 6.4 16.1 0.03 0.03 0.03 80 1007.4
20260506114242 17 244 6.4 16.1 0.03 0.03 0.03 79 1007.4
20260506114142 17 226 6.4 16.1 0.03 0.03 0.03 79 1007.3
20260506114040 17 212 6.4 16.1 0.03 0.03 0.03 79 1007.3
20260506113940 17 237 6.4 16.1 0.03 0.03 0.03 79 1007.3
20260506113904 17 224 6.4 19.3 0.03 0.03 0.03 78 1007.2
20260506113855 17 220 6.4 16.1 0.03 0.03 0.03 78 1007.2
20260506113641 17 226 6.4 19.3 0.03 0.03 0.03 78 1007.2
20260506113605 17 211 8.0 19.3 0.03 0.03 0.03 77 1007.1
20260506113557 17 213 6.4 19.3 0.03 0.03 0.03 77 1007.1
20260506113336 17 209 8.0 19.3 0.03 0.03 0.03 77 1007.1
20260506113238 17 206 9.7 19.3 0.03 0.03 0.03 77 1007.1
20260506113135 17 203 9.7 19.3 0.03 0.03 0.03 77 1007.0
20260506113034 17 193 9.7 19.3 0.03 0.03 0.03 77 1007.0
20260506112935 17 192 9.7 19.3 0.03 0.03 0.03 77 1006.9
20260506112833 18 178 9.7 19.3 0.03 0.03 0.03 76 1006.9
20260506112732 18 188 9.7 19.3 0.03 0.03 0.03 76 1006.9
20260506112633 18 221 9.7 19.3 0.00 0.00 0.03 75 1007.0
20260506112533 18 197 9.7 19.3 0.00 0.00 0.00 75 1007.0
20260506112432 18 187 9.7 19.3 0.00 0.00 0.00 75 1007.0
20260506112333 18 153 9.7 20.9 0.00 0.00 0.00 75 1007.0
20260506112232 18 159 9.7 20.9 0.00 0.00 0.00 74 1007.0
20260506112133 18 208 9.7 20.9 0.00 0.00 0.00 74 1007.0
20260506112027 18 188 9.7 20.9 0.00 0.00 0.00 74 1007.0
20260506111927 18 181 9.7 20.9 0.00 0.00 0.00 74 1007.0
20260506111826 18 162 9.7 20.9 0.00 0.00 0.00 73 1007.0
20260506111727 18 161 9.7 20.9 0.00 0.00 0.00 73 1006.9
20260506111627 18 199 9.7 20.9 0.00 0.00 0.00 73 1007.0
20260506111519 18 181 9.7 20.9 0.00 0.00 0.00 73 1007.0
20260506111421 18 174 9.7 20.9 0.00 0.00 0.00 72 1006.9
20260506111320 18 228 9.7 20.9 0.00 0.00 0.00 72 1006.9
20260506111246 18 189 9.7 20.9 0.00 0.00 0.00 72 1006.9
20260506111237 18 181 9.7 20.9 0.00 0.00 0.00 72 1006.9
20260506111017 18 177 9.7 20.9 0.00 0.00 0.00 72 1006.8
20260506110938 18 204 9.7 22.5 0.00 0.00 0.00 71 1006.8
20260506110929 18 188 9.7 20.9 0.00 0.00 0.00 71 1006.8
20260506110715 18 192 8.0 22.5 0.00 0.00 0.00 71 1006.8
20260506110615 18 190 8.0 22.5 0.00 0.00 0.00 70 1006.9
20260506110515 18 186 8.0 22.5 0.00 0.00 0.00 70 1006.8
20260506110415 18 184 8.0 22.5 0.00 0.00 0.00 70 1006.9
20260506110331 18 196 9.7 22.5 0.00 0.00 0.00 69 1006.9
20260506110325 18 191 9.7 22.5 0.00 0.00 0.00 70 1006.8
20260506110155 18 192 11.3 22.5 0.00 0.00 0.00 69 1006.7
20260506110143 18 155 9.7 22.5 0.00 0.00 0.00 69 1006.8
20260506110023 18 167 9.7 22.5 0.00 0.00 0.00 69 1006.8
20260506105804 18 188 11.3 24.1 0.00 0.00 0.00 69 1006.7
20260506105705 19 191 11.3 24.1 0.00 0.00 0.00 69 1006.7
20260506105605 19 169 11.3 24.1 0.00 0.00 0.00 69 1006.6
20260506105503 19 178 11.3 24.1 0.00 0.00 0.00 68 1006.6
20260506105402 18 148 9.7 24.1 0.00 0.00 0.00 69 1006.6
20260506105305 18 156 9.7 24.1 0.00 0.00 0.00 68 1006.7
20260506105203 18 211 8.0 24.1 0.00 0.00 0.00 69 1006.7
20260506105102 18 184 8.0 24.1 0.00 0.00 0.00 68 1006.7
20260506105003 18 173 8.0 24.1 0.00 0.00 0.00 68 1006.6
20260506104901 18 175 8.0 24.1 0.00 0.00 0.00 69 1006.6
20260506104803 18 234 6.4 19.3 0.00 0.00 0.00 69 1006.6
20260506104657 18 180 6.4 19.3 0.00 0.00 0.00 68 1006.6
20260506104555 18 184 6.4 20.9 0.00 0.00 0.00 68 1006.4
20260506104452 18 165 6.4 20.9 0.00 0.00 0.00 69 1006.6
20260506104352 18 185 6.4 20.9 0.00 0.00 0.00 68 1006.6
20260506104253 18 231 8.0 20.9 0.00 0.00 0.00 68 1006.6
20260506104152 18 232 8.0 20.9 0.00 0.00 0.00 68 1006.6
20260506104053 18 171 8.0 20.9 0.00 0.00 0.00 68 1006.6
20260506103952 18 177 8.0 20.9 0.00 0.00 0.00 68 1006.6
20260506103852 18 178 8.0 20.9 0.00 0.00 0.00 68 1006.4
20260506103753 18 181 8.0 20.9 0.00 0.00 0.00 68 1006.6
20260506103712 18 185 8.0 20.9 0.00 0.00 0.00 68 1006.4
20260506103703 18 189 8.0 20.9 0.00 0.00 0.00 68 1006.4
20260506103448 18 188 8.0 20.9 0.00 0.00 0.00 68 1006.4
20260506103349 18 180 8.0 20.9 0.00 0.00 0.00 68 1006.4
20260506103248 19 184 8.0 20.9 0.00 0.00 0.00 68 1006.4
20260506103148 19 198 8.0 20.9 0.00 0.00 0.00 68 1006.4
20260506103048 19 175 8.0 20.9 0.00 0.00 0.00 68 1006.4
20260506103030 19 169 8.0 20.9 0.00 0.00 0.00 68 1006.3
20260506103025 19 180 8.0 20.9 0.00 0.00 0.00 67 1006.4
20260506103016 19 159 8.0 20.9 0.00 0.00 0.00 68 1006.4
20260506102645 19 199 8.0 20.9 0.00 0.00 0.00 67 1006.3
20260506102545 19 194 8.0 20.9 0.00 0.00 0.00 67 1006.4
20260506102444 19 207 8.0 20.9 0.00 0.00 0.00 67 1006.3
20260506102345 19 213 8.0 20.9 0.00 0.00 0.00 67 1006.4
20260506102308 19 221 8.0 20.9 0.00 0.00 0.00 67 1006.3
20260506102300 19 213 8.0 20.9 0.00 0.00 0.00 67 1006.3
20260506102056 19 192 8.0 17.7 0.00 0.00 0.00 66 1006.4
20260506102049 19 194 8.0 17.7 0.00 0.00 0.00 67 1006.3
20260506102034 19 196 8.0 17.7 0.00 0.00 0.00 67 1006.3
20260506101922 19 197 8.0 17.7 0.00 0.00 0.00 66 1006.3
20260506101911 19 191 9.7 17.7 0.00 0.00 0.00 66 1006.4
20260506101540 19 194 8.0 17.7 0.00 0.00 0.00 66 1006.4
20260506101439 19 202 8.0 17.7 0.00 0.00 0.00 66 1006.3
20260506101341 19 202 8.0 17.7 0.00 0.00 0.00 67 1006.2
20260506101236 19 178 8.0 17.7 0.00 0.00 0.00 66 1006.2
20260506101135 19 169 8.0 17.7 0.00 0.00 0.00 66 1006.2
20260506101036 19 176 6.4 17.7 0.00 0.00 0.00 66 1006.2
20260506100936 19 175 6.4 16.1 0.00 0.00 0.00 66 1006.1
20260506100836 19 172 6.4 30.6 0.00 0.00 0.00 66 1006.1
20260506100759 19 178 8.0 30.6 0.00 0.00 0.00 66 1006.1
20260506100752 19 182 8.0 30.6 0.00 0.00 0.00 66 1006.0
20260506100537 19 193 8.0 30.6 0.00 0.00 0.00 66 1006.1
20260506100432 19 210 8.0 30.6 0.00 0.00 0.00 66 1006.1
20260506100333 19 198 9.7 30.6 0.00 0.00 0.00 66 1006.1
20260506100232 19 198 9.7 30.6 0.00 0.00 0.00 65 1006.0
20260506100132 19 182 9.7 30.6 0.00 0.00 0.00 66 1006.0
20260506100032 19 185 11.3 30.6 0.00 0.00 0.00 66 1006.0
20260506095932 19 182 11.3 30.6 0.00 0.00 0.00 66 1006.0
20260506095832 19 186 9.7 30.6 0.00 0.00 0.00 65 1005.9
20260506095733 19 138 9.7 30.6 0.00 0.00 0.00 65 1006.0
20260506095628 19 183 9.7 30.6 0.00 0.00 0.00 65 1006.0
20260506095528 19 176 8.0 30.6 0.00 0.00 0.00 66 1006.0
20260506095428 19 180 8.0 30.6 0.00 0.00 0.00 65 1005.8
20260506095352 19 192 8.0 30.6 0.00 0.00 0.00 65 1005.9
20260506095343 19 185 8.0 30.6 0.00 0.00 0.00 65 1005.9
20260506095128 19 196 8.0 30.6 0.00 0.00 0.00 66 1005.9
20260506095028 19 198 9.7 30.6 0.00 0.00 0.00 65 1005.9
20260506094929 19 166 8.0 30.6 0.00 0.00 0.00 65 1005.8
20260506094825 19 144 9.7 22.5 0.00 0.00 0.00 65 1005.8
20260506094746 19 182 9.7 22.5 0.00 0.00 0.00 65 1005.9
20260506094739 19 183 9.7 22.5 0.00 0.00 0.00 65 1005.8
20260506094524 19 177 9.7 22.5 0.00 0.00 0.00 65 1005.9
20260506094423 19 200 9.7 22.5 0.00 0.00 0.00 65 1005.8
20260506094325 19 188 9.7 22.5 0.00 0.00 0.00 65 1005.9
20260506094247 19 142 8.0 22.5 0.00 0.00 0.00 64 1005.9
20260506094239 19 157 9.7 22.5 0.00 0.00 0.00 65 1005.9
20260506094043 19 152 8.0 20.9 0.00 0.00 0.00 64 1006.0
20260506094036 19 192 8.0 20.9 0.00 0.00 0.00 64 1006.0
20260506093821 20 204 8.0 22.5 0.00 0.00 0.00 64 1006.0
20260506093721 20 179 8.0 22.5 0.00 0.00 0.00 64 1006.0
20260506093620 20 166 9.7 22.5 0.00 0.00 0.00 64 1006.0
20260506093521 20 162 9.7 22.5 0.00 0.00 0.00 64 1005.9
20260506093420 20 136 9.7 22.5 0.00 0.00 0.00 64 1006.0
20260506093321 20 166 9.7 22.5 0.00 0.00 0.00 64 1006.0
20260506093217 20 158 9.7 22.5 0.00 0.00 0.00 63 1006.0
20260506093116 20 153 9.7 22.5 0.00 0.00 0.00 63 1006.0
20260506093018 20 165 9.7 22.5 0.00 0.00 0.00 63 1006.1
20260506092916 20 187 9.7 22.5 0.00 0.00 0.00 63 1006.0
20260506092816 20 166 9.7 22.5 0.00 0.00 0.00 63 1006.0
20260506092716 20 155 9.7 22.5 0.00 0.00 0.00 63 1006.0
20260506092616 20 176 9.7 22.5 0.00 0.00 0.00 63 1006.0
20260506092517 20 200 9.7 27.4 0.00 0.00 0.00 63 1006.1
20260506092410 20 173 9.7 27.4 0.00 0.00 0.00 63 1006.1
20260506092310 20 191 9.7 27.4 0.00 0.00 0.00 63 1006.1
20260506092211 20 167 9.7 27.4 0.00 0.00 0.00 63 1006.1
20260506092110 20 192 9.7 27.4 0.00 0.00 0.00 63 1006.1
20260506092011 20 144 9.7 27.4 0.00 0.00 0.00 63 1006.1
20260506091903 20 164 9.7 27.4 0.00 0.00 0.00 62 1006.1
20260506091804 20 190 9.7 27.4 0.00 0.00 0.00 62 1006.1
20260506091750 20 185 11.3 27.4 0.00 0.00 0.00 63 1006.0
20260506091745 20 148 12.9 27.4 0.00 0.00 0.00 62 1006.1
20260506091736 20 194 11.3 27.4 0.00 0.00 0.00 62 1006.1
20260506091358 20 165 12.9 27.4 0.00 0.00 0.00 62 1006.1
20260506091259 20 196 12.9 27.4 0.00 0.00 0.00 62 1006.1
20260506091158 20 156 14.5 29.0 0.00 0.00 0.00 62 1006.1
20260506091121 20 168 12.9 29.0 0.00 0.00 0.00 62 1006.1
20260506091113 20 143 14.5 29.0 0.00 0.00 0.00 62 1006.1
20260506090917 20 180 12.9 29.0 0.00 0.00 0.00 62 1006.1
20260506090909 20 188 12.9 29.0 0.00 0.00 0.00 62 1006.1
20260506090653 20 181 12.9 29.0 0.00 0.00 0.00 62 1006.1
20260506090554 20 159 11.3 29.0 0.00 0.00 0.00 62 1006.1
20260506090454 20 198 11.3 29.0 0.00 0.00 0.00 62 1006.3
20260506090420 20 175 9.7 29.0 0.00 0.00 0.00 62 1006.3
20260506090411 20 188 11.3 29.0 0.00 0.00 0.00 62 1006.2
20260506090155 20 169 9.7 25.7 0.00 0.00 0.00 62 1006.3
20260506090051 20 155 9.7 25.7 0.00 0.00 0.00 62 1006.4
20260506090035 20 133 9.7 25.7 0.00 0.00 0.00 62 1006.3
20260506090029 20 188 9.7 25.7 0.00 0.00 0.00 62 1006.3
20260506090020 20 167 9.7 25.7 0.00 0.00 0.00 62 1006.4
20260506085649 20 188 11.3 25.7 0.00 0.00 0.00 62 1006.4
20260506085609 20 165 11.3 33.8 0.00 0.00 0.00 62 1006.3
20260506085600 20 171 11.3 33.8 0.00 0.00 0.00 61 1006.3
20260506085431 20 172 12.9 33.8 0.00 0.00 0.00 61 1006.3
20260506085420 20 183 12.9 33.8 0.00 0.00 0.00 61 1006.3
20260506085301 20 146 12.9 33.8 0.00 0.00 0.00 61 1006.3
20260506085045 20 173 12.9 33.8 0.00 0.00 0.00 61 1006.3
20260506084945 20 198 12.9 33.8 0.00 0.00 0.00 61 1006.3
20260506084901 20 182 12.9 33.8 0.00 0.00 0.00 61 1006.3
20260506084855 20 162 12.9 33.8 0.00 0.00 0.00 61 1006.3
20260506084638 20 171 12.9 33.8 0.00 0.00 0.00 61 1006.2
20260506084537 20 184 14.5 33.8 0.00 0.00 0.00 61 1006.3
20260506084504 20 178 12.9 33.8 0.00 0.00 0.00 61 1006.3
20260506084455 20 169 14.5 33.8 0.00 0.00 0.00 61 1006.3
20260506084257 20 204 12.9 33.8 0.00 0.00 0.00 61 1006.3
20260506084250 20 156 12.9 33.8 0.00 0.00 0.00 61 1006.3
20260506084036 20 180 11.3 33.8 0.00 0.00 0.00 61 1006.3
20260506083934 20 165 11.3 33.8 0.00 0.00 0.00 61 1006.3
20260506083833 20 181 11.3 33.8 0.00 0.00 0.00 61 1006.3
20260506083734 20 185 11.3 33.8 0.00 0.00 0.00 61 1006.2
20260506083658 20 158 9.7 24.1 0.00 0.00 0.00 61 1006.2
20260506083651 20 168 9.7 33.8 0.00 0.00 0.00 61 1006.4
20260506083430 20 202 9.7 24.1 0.00 0.00 0.00 61 1006.2
20260506083353 20 202 11.3 24.1 0.00 0.00 0.00 61 1006.3
20260506083344 20 171 9.7 24.1 0.00 0.00 0.00 61 1006.3
20260506083131 20 171 11.3 24.1 0.00 0.00 0.00 61 1006.3
20260506083030 20 209 9.7 24.1 0.00 0.00 0.00 61 1006.2
20260506082931 20 165 9.7 24.1 0.00 0.00 0.00 61 1006.2
20260506082830 20 186 9.7 24.1 0.00 0.00 0.00 61 1006.2
20260506082731 20 167 9.7 24.1 0.00 0.00 0.00 61 1006.2
20260506082626 20 162 9.7 24.1 0.00 0.00 0.00 61 1006.3
20260506082528 20 159 9.7 29.0 0.00 0.00 0.00 61 1006.2
20260506082426 20 161 9.7 29.0 0.00 0.00 0.00 61 1006.2
20260506082349 20 141 9.7 29.0 0.00 0.00 0.00 61 1006.3
20260506082342 20 170 9.7 29.0 0.00 0.00 0.00 61 1006.2
20260506082127 20 190 9.7 29.0 0.00 0.00 0.00 61 1006.3
20260506082049 20 162 9.7 29.0 0.00 0.00 0.00 61 1006.3
20260506082042 20 173 9.7 29.0 0.00 0.00 0.00 61 1006.3
20260506081822 20 187 9.7 29.0 0.00 0.00 0.00 61 1006.3
20260506081746 20 165 11.3 29.0 0.00 0.00 0.00 61 1006.3
20260506081737 20 165 9.7 29.0 0.00 0.00 0.00 61 1006.3
20260506081522 20 176 11.3 29.0 0.00 0.00 0.00 60 1006.3
20260506081446 20 230 9.7 29.0 0.00 0.00 0.00 61 1006.3
20260506081438 20 186 9.7 29.0 0.00 0.00 0.00 60 1006.3
20260506081222 20 186 9.7 29.0 0.00 0.00 0.00 61 1006.2
20260506081123 20 188 9.7 29.0 0.00 0.00 0.00 60 1006.2
20260506081016 20 165 9.7 29.0 0.00 0.00 0.00 60 1006.2
20260506080916 20 161 9.7 29.0 0.00 0.00 0.00 60 1006.2
20260506080816 20 140 9.7 29.0 0.00 0.00 0.00 60 1006.3
20260506080715 20 169 9.7 29.0 0.00 0.00 0.00 60 1006.2
20260506080617 20 148 8.0 29.0 0.00 0.00 0.00 60 1006.2
20260506080511 20 168 8.0 20.9 0.00 0.00 0.00 60 1006.3
20260506080412 20 167 8.0 20.9 0.00 0.00 0.00 60 1006.3
20260506080312 20 147 8.0 20.9 0.00 0.00 0.00 60 1006.3
20260506080236 20 194 8.0 20.9 0.00 0.00 0.00 60 1006.3
20260506080227 20 197 8.0 20.9 0.00 0.00 0.00 60 1006.3
20260506073500 20 180 9.7 22.5 0.00 0.00 0.00 58 1006.3
20260506073401 20 161 9.7 22.5 0.00 0.00 0.00 58 1006.3
20260506073319 20 171 8.0 24.1 0.00 0.00 0.00 58 1006.3
20260506073312 20 180 9.7 22.5 0.00 0.00 0.00 58 1006.3
20260506073055 20 182 9.7 24.1 0.00 0.00 0.00 58 1006.3
20260506073019 20 234 9.7 24.1 0.00 0.00 0.00 58 1006.3
20260506073012 20 190 9.7 24.1 0.00 0.00 0.00 58 1006.3
20260506072757 20 145 9.7 24.1 0.00 0.00 0.00 58 1006.3
20260506072656 20 246 9.7 24.1 0.00 0.00 0.00 58 1006.3
20260506072615 20 188 9.7 24.1 0.00 0.00 0.00 57 1006.4
20260506072607 20 157 9.7 24.1 0.00 0.00 0.00 57 1006.3
20260506072351 20 177 9.7 24.1 0.00 0.00 0.00 57 1006.6
20260506072253 20 161 9.7 24.1 0.00 0.00 0.00 57 1006.6
20260506072152 20 197 9.7 24.1 0.00 0.00 0.00 57 1006.6
20260506072139 21 161 9.7 24.1 0.00 0.00 0.00 57 1006.6
20260506072134 21 141 9.7 24.1 0.00 0.00 0.00 57 1006.4
20260506072123 20 187 9.7 24.1 0.00 0.00 0.00 57 1006.4
20260506071753 21 188 9.7 24.1 0.00 0.00 0.00 57 1006.6
20260506071648 21 165 11.3 24.1 0.00 0.00 0.00 57 1006.6
20260506071548 21 146 11.3 24.1 0.00 0.00 0.00 57 1006.6
20260506071447 21 196 11.3 24.1 0.00 0.00 0.00 57 1006.6
20260506071434 21 154 12.9 24.1 0.00 0.00 0.00 57 1006.4
20260506071429 21 145 11.3 33.8 0.00 0.00 0.00 57 1006.6
20260506071418 21 158 11.3 24.1 0.00 0.00 0.00 57 1006.6
20260506071048 21 190 12.9 33.8 0.00 0.00 0.00 57 1006.4
20260506070948 21 178 12.9 33.8 0.00 0.00 0.00 56 1006.4
20260506070845 21 167 11.3 33.8 0.00 0.00 0.00 57 1006.4
20260506070809 21 197 11.3 33.8 0.00 0.00 0.00 56 1006.6
20260506070801 21 185 11.3 33.8 0.00 0.00 0.00 56 1006.4
20260506070545 21 180 11.3 33.8 0.00 0.00 0.00 56 1006.4
20260506070445 21 150 11.3 33.8 0.00 0.00 0.00 56 1006.6
20260506070345 21 165 11.3 33.8 0.00 0.00 0.00 56 1006.6
20260506070244 21 183 11.3 33.8 0.00 0.00 0.00 56 1006.6
20260506070145 21 168 12.9 33.8 0.00 0.00 0.00 56 1006.6
20260506062423 21 180 11.3 25.7 0.00 0.00 0.00 54 1007.1
20260506062324 21 180 9.7 25.7 0.00 0.00 0.00 54 1007.1
20260506062224 21 180 9.7 25.7 0.00 0.00 0.00 54 1007.2
20260506062125 21 167 9.7 25.7 0.00 0.00 0.00 54 1007.1
20260506062020 21 174 9.7 25.7 0.00 0.00 0.00 54 1007.2
20260506061921 21 191 9.7 25.7 0.00 0.00 0.00 54 1007.1
20260506061819 21 223 9.7 25.7 0.00 0.00 0.00 54 1007.1
20260506061721 21 187 9.7 25.7 0.00 0.00 0.00 54 1007.2
20260506061620 21 162 9.7 25.7 0.00 0.00 0.00 54 1007.1
20260506061520 21 162 11.3 25.7 0.00 0.00 0.00 54 1007.2
20260506061422 21 155 11.3 25.7 0.00 0.00 0.00 54 1007.2
20260506061321 21 194 11.3 25.7 0.00 0.00 0.00 53 1007.2
20260506061217 21 196 11.3 32.2 0.00 0.00 0.00 53 1007.2
20260506061117 21 173 11.3 32.2 0.00 0.00 0.00 53 1007.2
20260506061017 21 180 11.3 32.2 0.00 0.00 0.00 53 1007.2
20260506060917 21 126 11.3 32.2 0.00 0.00 0.00 53 1007.2